GW3448 Weather Reports


Display with metric or nautical units.
time (UTC)temp
F
wind
direction
speed
MPH
gust
MPH
rain 1hr
in
rain 24hr
in
rain mn
in
humidity
%
barometer
mb
20260831002233 79 15 2.0 4.0 0.00 0.00 0.00 32 1013.8
20260831002132 79 15 2.0 4.0 0.00 0.00 0.00 33 1013.7
20260831002031 79 53 2.0 4.0 0.00 0.00 0.00 32 1013.8
20260831001930 79 74 2.0 4.0 0.00 0.00 0.00 31 1013.8
20260831001830 79 76 2.0 4.0 0.00 0.00 0.00 31 1013.8
20260831001755 79 45 2.0 4.0 0.00 0.00 0.00 31 1013.8
20260831001734 79 33 2.0 4.0 0.00 0.00 0.00 31 1013.8
20260831001711 79 65 2.0 4.0 0.00 0.00 0.00 32 1013.8
20260831001649 79 11 1.0 4.0 0.00 0.00 0.00 31 1013.7
20260831001613 79 193 2.0 4.0 0.00 0.00 0.00 31 1013.8
20260831001551 79 196 2.0 4.0 0.00 0.00 0.00 31 1013.8
20260831001530 79 69 2.0 4.0 0.00 0.00 0.00 31 1013.8
20260831001507 79 83 2.0 4.0 0.00 0.00 0.00 32 1013.8
20260831001446 79 338 1.0 4.0 0.00 0.00 0.00 32 1013.8
20260831001410 79 17 1.0 4.0 0.00 0.00 0.00 31 1013.8
20260831001351 79 17 2.0 4.0 0.00 0.00 0.00 30 1013.9
20260831001329 79 109 2.0 4.0 0.00 0.00 0.00 31 1013.8
20260831001039 79 142 1.0 3.0 0.00 0.00 0.00 30 1013.9
20260831001001 79 130 1.0 3.0 0.00 0.00 0.00 31 1013.8
20260831000940 79 164 1.0 3.0 0.00 0.00 0.00 31 1013.8
20260831000425 79 66 1.0 4.0 0.00 0.00 0.00 31 1013.9
20260830235851 79 186 1.0 4.0 0.00 0.00 0.00 31 1013.9
20260830235828 78 263 2.0 4.0 0.00 0.00 0.00 31 1013.9
20260830235210 79 352 2.0 4.0 0.00 0.00 0.00 32 1014.0
20260830235110 79 9 2.0 4.0 0.00 0.00 0.00 31 1013.9
20260830235008 79 67 1.0 3.0 0.00 0.00 0.00 32 1014.0
20260830234908 79 13 1.0 6.0 0.00 0.00 0.00 31 1014.0
20260830234808 79 290 1.0 6.0 0.00 0.00 0.00 32 1014.0
20260830234707 79 292 1.0 6.0 0.00 0.00 0.00 31 1014.0
20260830234608 78 306 1.0 6.0 0.00 0.00 0.00 32 1014.0
20260830234536 78 311 2.0 6.0 0.00 0.00 0.00 33 1014.1
20260830234510 78 316 2.0 6.0 0.00 0.00 0.00 33 1014.0
20260830234435 78 340 1.0 6.0 0.00 0.00 0.00 33 1014.1
20260830234105 78 20 2.0 6.0 0.00 0.00 0.00 32 1014.1
20260830234001 78 5 2.0 6.0 0.00 0.00 0.00 32 1014.1
20260830233902 78 5 2.0 4.0 0.00 0.00 0.00 33 1014.1
20260830233806 78 352 2.0 4.0 0.00 0.00 0.00 33 1014.1
20260830233745 78 18 2.0 4.0 0.00 0.00 0.00 32 1014.1
20260830233721 78 50 2.0 7.0 0.00 0.00 0.00 32 1014.1
20260830233700 78 68 2.0 7.0 0.00 0.00 0.00 32 1014.2
20260830233634 78 277 2.0 7.0 0.00 0.00 0.00 31 1014.2
20260830233558 78 5 2.0 7.0 0.00 0.00 0.00 31 1014.2
20260830233536 78 333 2.0 7.0 0.00 0.00 0.00 31 1014.2
20260830233515 78 15 2.0 7.0 0.00 0.00 0.00 33 1014.2
20260830233453 78 333 3.0 7.0 0.00 0.00 0.00 32 1014.2
20260830233147 78 19 4.0 7.0 0.00 0.00 0.00 32 1014.2
20260830232630 78 59 1.0 4.0 0.00 0.00 0.00 31 1014.2
20260830232604 78 333 0.0 4.0 0.00 0.00 0.00 32 1014.2
20260830232530 78 279 1.0 4.0 0.00 0.00 0.00 31 1014.3
20260830232508 78 301 1.0 5.0 0.00 0.00 0.00 32 1014.3
20260830232449 78 261 1.0 5.0 0.00 0.00 0.00 31 1014.3
20260830232425 78 232 1.0 5.0 0.00 0.00 0.00 31 1014.3
20260830232122 77 227 2.0 5.0 0.00 0.00 0.00 32 1014.3
20260830232103 77 221 2.0 5.0 0.00 0.00 0.00 32 1014.3
20260830232041 77 13 2.0 5.0 0.00 0.00 0.00 31 1014.3
20260830232020 77 352 2.0 5.0 0.00 0.00 0.00 33 1014.4
20260830231954 77 49 3.0 5.0 0.00 0.00 0.00 32 1014.4
20260830231918 77 11 2.0 5.0 0.00 0.00 0.00 32 1014.4
20260830231402 77 302 2.0 5.0 0.00 0.00 0.00 32 1014.4
20260830231057 77 78 3.0 5.0 0.00 0.00 0.00 33 1014.4
20260830231034 77 44 2.0 4.0 0.00 0.00 0.00 31 1014.4
20260830231012 78 0 2.0 4.0 0.00 0.00 0.00 32 1014.4
20260830230722 78 13 2.0 4.0 0.00 0.00 0.00 32 1014.5
20260830230643 78 348 2.0 4.0 0.00 0.00 0.00 31 1014.4
20260830230355 78 39 1.0 4.0 0.00 0.00 0.00 31 1014.5
20260830225753 78 316 2.0 7.0 0.00 0.00 0.00 33 1014.5
20260830225731 78 340 2.0 7.0 0.00 0.00 0.00 31 1014.5
20260830225401 78 297 2.0 8.0 0.00 0.00 0.00 34 1014.5
20260830225316 78 298 3.0 8.0 0.00 0.00 0.00 32 1014.5
20260830225200 78 315 3.0 8.0 0.00 0.00 0.00 32 1014.6
20260830225101 78 298 4.0 8.0 0.00 0.00 0.00 32 1014.6
20260830225001 78 286 2.0 8.0 0.00 0.00 0.00 31 1014.5
20260830224900 78 246 2.0 8.0 0.00 0.00 0.00 32 1014.6
20260830224811 78 264 3.0 8.0 0.00 0.00 0.00 32 1014.6
20260830224701 78 309 4.0 8.0 0.00 0.00 0.00 33 1014.7
20260830224603 78 352 2.0 8.0 0.00 0.00 0.00 33 1014.6
20260830224542 78 312 2.0 7.0 0.00 0.00 0.00 32 1014.6
20260830224513 78 345 3.0 7.0 0.00 0.00 0.00 33 1014.6
20260830224453 78 289 3.0 7.0 0.00 0.00 0.00 33 1014.7
20260830224416 78 344 2.0 7.0 0.00 0.00 0.00 34 1014.8
20260830224353 78 5 3.0 7.0 0.00 0.00 0.00 33 1014.7
20260830223807 78 263 2.0 5.0 0.00 0.00 0.00 33 1014.7
20260830223654 78 293 2.0 5.0 0.00 0.00 0.00 33 1014.8
20260830223546 78 5 2.0 5.0 0.00 0.00 0.00 33 1014.8
20260830223446 78 0 2.0 4.0 0.00 0.00 0.00 33 1014.9
20260830223345 78 36 2.0 4.0 0.00 0.00 0.00 33 1014.9
20260830223245 78 44 1.0 4.0 0.00 0.00 0.00 32 1014.9
20260830223144 78 350 1.0 3.0 0.00 0.00 0.00 31 1014.9
20260830223108 78 236 1.0 3.0 0.00 0.00 0.00 31 1014.9
20260830223044 78 0 1.0 3.0 0.00 0.00 0.00 30 1014.9
20260830223025 78 0 1.0 6.0 0.00 0.00 0.00 30 1015.0
20260830222638 78 306 2.0 6.0 0.00 0.00 0.00 31 1015.0
20260830222531 78 283 1.0 6.0 0.00 0.00 0.00 31 1015.1
20260830222430 78 219 0.0 6.0 0.00 0.00 0.00 32 1015.1
20260830222329 78 106 0.0 6.0 0.00 0.00 0.00 31 1015.0
20260830222230 78 179 1.0 6.0 0.00 0.00 0.00 31 1015.1
20260830222129 78 179 2.0 6.0 0.00 0.00 0.00 30 1015.1
20260830222029 78 177 3.0 7.0 0.00 0.00 0.00 31 1015.1
20260830221929 78 180 3.0 7.0 0.00 0.00 0.00 32 1015.1
20260830221829 78 178 4.0 7.0 0.00 0.00 0.00 31 1015.1
20260830221729 78 212 4.0 7.0 0.00 0.00 0.00 31 1015.1
20260830221633 78 161 2.0 7.0 0.00 0.00 0.00 32 1015.1
20260830221600 78 148 2.0 7.0 0.00 0.00 0.00 32 1015.1
20260830221536 78 180 3.0 7.0 0.00 0.00 0.00 31 1015.2
20260830221513 78 141 4.0 7.0 0.00 0.00 0.00 31 1015.2
20260830221128 78 171 4.0 7.0 0.00 0.00 0.00 32 1015.2
20260830221057 78 158 4.0 7.0 0.00 0.00 0.00 32 1015.1
20260830221033 78 161 3.0 8.0 0.00 0.00 0.00 33 1015.2
20260830221013 77 209 2.0 9.0 0.00 0.00 0.00 33 1015.2
20260830220624 77 255 2.0 9.0 0.00 0.00 0.00 32 1015.2
20260830220524 77 176 4.0 9.0 0.00 0.00 0.00 33 1015.3
20260830220424 77 124 4.0 9.0 0.00 0.00 0.00 32 1015.3
20260830220332 77 122 4.0 9.0 0.00 0.00 0.00 32 1015.3
20260830220255 77 159 3.0 9.0 0.00 0.00 0.00 33 1015.3
20260830220231 77 162 4.0 9.0 0.00 0.00 0.00 33 1015.3
20260830220211 77 245 3.0 9.0 0.00 0.00 0.00 33 1015.3
20260830220146 77 251 2.0 8.0 0.00 0.00 0.00 34 1015.3
20260830215842 77 301 2.0 8.0 0.00 0.00 0.00 33 1015.4
20260830215821 77 238 2.0 8.0 0.00 0.00 0.00 34 1015.4
20260830215528 77 165 3.0 10.0 0.00 0.00 0.00 33 1015.4
20260830215503 76 142 3.0 10.0 0.00 0.00 0.00 33 1015.4
20260830215118 76 183 5.0 10.0 0.00 0.00 0.00 33 1015.5
20260830215018 77 163 4.0 10.0 0.00 0.00 0.00 34 1015.5
20260830214945 76 172 3.0 10.0 0.00 0.00 0.00 35 1015.6
20260830214920 76 159 3.0 10.0 0.00 0.00 0.00 34 1015.5
20260830214844 76 244 5.0 10.0 0.00 0.00 0.00 33 1015.6
20260830214513 77 267 3.0 8.0 0.00 0.00 0.00 34 1015.5
20260830214412 77 271 3.0 8.0 0.00 0.00 0.00 35 1015.7
20260830214311 77 257 3.0 8.0 0.00 0.00 0.00 34 1015.5
20260830214211 77 267 4.0 8.0 0.00 0.00 0.00 33 1015.7
20260830214110 77 257 3.0 8.0 0.00 0.00 0.00 34 1015.7
20260830214038 77 263 1.0 6.0 0.00 0.00 0.00 34 1015.6
20260830214016 77 129 2.0 6.0 0.00 0.00 0.00 33 1015.7
20260830213955 77 157 2.0 6.0 0.00 0.00 0.00 33 1015.7
20260830213608 76 208 3.0 7.0 0.00 0.00 0.00 35 1015.7
20260830213507 76 171 3.0 7.0 0.00 0.00 0.00 35 1015.7
20260830213406 76 213 3.0 7.0 0.00 0.00 0.00 34 1015.7
20260830213306 76 180 2.0 7.0 0.00 0.00 0.00 35 1015.7
20260830213205 76 281 2.0 7.0 0.00 0.00 0.00 36 1015.7
20260830213105 76 0 2.0 7.0 0.00 0.00 0.00 34 1015.8
20260830213006 76 186 3.0 7.0 0.00 0.00 0.00 34 1015.8
20260830212905 76 69 3.0 7.0 0.00 0.00 0.00 34 1015.9
20260830212832 76 160 2.0 7.0 0.00 0.00 0.00 35 1015.9
20260830212754 76 258 1.0 6.0 0.00 0.00 0.00 34 1015.9
20260830212733 76 225 2.0 6.0 0.00 0.00 0.00 34 1015.8
20260830212405 76 173 3.0 6.0 0.00 0.00 0.00 36 1015.9
20260830212306 76 268 3.0 9.0 0.00 0.00 0.00 36 1015.9
20260830212204 76 286 2.0 9.0 0.00 0.00 0.00 37 1015.9
20260830212101 76 260 2.0 9.0 0.00 0.00 0.00 37 1015.9
20260830212003 76 285 3.0 9.0 0.00 0.00 0.00 37 1015.8
20260830211902 76 279 3.0 9.0 0.00 0.00 0.00 35 1015.8
20260830211802 76 337 3.0 9.0 0.00 0.00 0.00 36 1015.9
20260830211701 76 314 2.0 9.0 0.00 0.00 0.00 37 1015.8
20260830211615 76 14 4.0 9.0 0.00 0.00 0.00 36 1015.9
20260830211553 76 251 5.0 9.0 0.00 0.00 0.00 37 1015.8
20260830211530 76 283 4.0 9.0 0.00 0.00 0.00 36 1015.8
20260830211202 76 229 2.0 7.0 0.00 0.00 0.00 37 1015.9
20260830211100 76 290 3.0 7.0 0.00 0.00 0.00 37 1015.9
20260830211001 76 304 3.0 7.0 0.00 0.00 0.00 37 1015.9
20260830210902 76 25 2.0 8.0 0.00 0.00 0.00 36 1015.9
20260830210803 76 290 2.0 8.0 0.00 0.00 0.00 36 1015.9
20260830210719 76 263 3.0 10.0 0.00 0.00 0.00 37 1015.9
20260830210656 75 184 2.0 10.0 0.00 0.00 0.00 36 1015.9
20260830210634 75 130 1.0 10.0 0.00 0.00 0.00 37 1015.9
20260830210301 75 84 2.0 10.0 0.00 0.00 0.00 36 1016.0
20260830210216 75 177 4.0 10.0 0.00 0.00 0.00 36 1016.0
20260830210003 75 261 7.0 10.0 0.00 0.00 0.00 36 1016.0
20260830205901 76 268 4.0 10.0 0.00 0.00 0.00 36 1016.0
20260830205802 76 270 2.0 9.0 0.00 0.00 0.00 37 1016.0
20260830205714 76 266 2.0 7.0 0.00 0.00 0.00 38 1016.0
20260830205602 75 128 3.0 7.0 0.00 0.00 0.00 36 1016.0
20260830205501 75 200 3.0 11.0 0.00 0.00 0.00 37 1016.0
20260830205431 75 198 3.0 11.0 0.00 0.00 0.00 37 1016.0
20260830205407 75 208 3.0 11.0 0.00 0.00 0.00 38 1016.0
20260830205346 75 193 2.0 11.0 0.00 0.00 0.00 38 1016.0
20260830205022 74 225 4.0 14.0 0.00 0.00 0.00 37 1016.0
20260830204958 74 250 4.0 14.0 0.00 0.00 0.00 37 1016.1
20260830204940 74 290 5.0 14.0 0.00 0.00 0.00 38 1016.1
20260830204918 74 182 5.0 14.0 0.00 0.00 0.00 37 1016.0
20260830204842 74 142 4.0 14.0 0.00 0.00 0.00 37 1016.1
20260830204817 74 156 6.0 14.0 0.00 0.00 0.00 38 1016.1
20260830204756 74 202 5.0 14.0 0.00 0.00 0.00 36 1016.1
20260830204734 74 162 5.0 14.0 0.00 0.00 0.00 37 1016.2
20260830204715 74 228 6.0 14.0 0.00 0.00 0.00 38 1016.1
20260830204637 74 201 5.0 14.0 0.00 0.00 0.00 37 1016.2
20260830203846 74 229 4.0 10.0 0.00 0.00 0.00 38 1016.2
20260830203501 74 263 3.0 10.0 0.00 0.00 0.00 39 1016.2
20260830203403 74 181 3.0 10.0 0.00 0.00 0.00 38 1016.3
20260830203300 74 175 4.0 10.0 0.00 0.00 0.00 38 1016.2
20260830203207 74 265 5.0 10.0 0.00 0.00 0.00 38 1016.3
20260830203102 74 259 5.0 8.0 0.00 0.00 0.00 38 1016.3
20260830203004 74 250 4.0 8.0 0.00 0.00 0.00 38 1016.3
20260830202900 74 262 4.0 8.0 0.00 0.00 0.00 39 1016.3
20260830202802 74 257 4.0 8.0 0.00 0.00 0.00 39 1016.3
20260830202702 74 152 3.0 13.0 0.00 0.00 0.00 39 1016.4
20260830202618 74 158 4.0 13.0 0.00 0.00 0.00 38 1016.3
20260830202556 74 126 4.0 13.0 0.00 0.00 0.00 39 1016.4
20260830202533 74 263 4.0 13.0 0.00 0.00 0.00 40 1016.4
20260830202201 74 165 3.0 13.0 0.00 0.00 0.00 40 1016.4
20260830202109 74 169 4.0 13.0 0.00 0.00 0.00 40 1016.6
20260830202046 73 253 5.0 13.0 0.00 0.00 0.00 41 1016.6
20260830202022 73 160 5.0 13.0 0.00 0.00 0.00 41 1016.6
20260830202002 73 205 5.0 13.0 0.00 0.00 0.00 40 1016.4
20260830201940 73 203 6.0 11.0 0.00 0.00 0.00 39 1016.4
20260830201633 73 193 5.0 10.0 0.00 0.00 0.00 39 1016.4
20260830201301 73 301 3.0 8.0 0.00 0.00 0.00 40 1016.4
20260830201230 74 275 3.0 8.0 0.00 0.00 0.00 41 1016.6
20260830201151 73 262 2.0 8.0 0.00 0.00 0.00 40 1016.6
20260830201131 73 218 2.0 8.0 0.00 0.00 0.00 42 1016.4
20260830200821 73 208 2.0 11.0 0.00 0.00 0.00 42 1016.4
20260830200757 73 111 2.0 11.0 0.00 0.00 0.00 42 1016.4
20260830200722 72 242 3.0 11.0 0.00 0.00 0.00 42 1016.6
20260830200701 72 176 4.0 13.0 0.00 0.00 0.00 41 1016.6
20260830200407 72 239 3.0 13.0 0.00 0.00 0.00 41 1016.6
20260830200345 72 286 2.0 13.0 0.00 0.00 0.00 40 1016.6
20260830200000 72 224 5.0 13.0 0.00 0.00 0.00 41 1016.6
20260830195859 72 257 4.0 13.0 0.00 0.00 0.00 40 1016.6
20260830195758 72 277 7.0 13.0 0.00 0.00 0.00 41 1016.7
20260830195657 72 232 8.0 13.0 0.00 0.00 0.00 41 1016.6
20260830195558 72 285 6.0 13.0 0.00 0.00 0.00 40 1016.6
20260830195456 72 229 4.0 13.0 0.00 0.00 0.00 40 1016.6
20260830195356 72 244 3.0 13.0 0.00 0.00 0.00 40 1016.7
20260830195257 72 274 3.0 13.0 0.00 0.00 0.00 40 1016.8
20260830195155 72 252 3.0 13.0 0.00 0.00 0.00 40 1016.7
20260830195055 72 90 4.0 14.0 0.00 0.00 0.00 40 1016.8
20260830194953 72 199 6.0 14.0 0.00 0.00 0.00 40 1016.8
20260830194853 72 178 5.0 14.0 0.00 0.00 0.00 40 1016.8
20260830194752 72 196 4.0 14.0 0.00 0.00 0.00 40 1016.8
20260830194653 72 178 3.0 14.0 0.00 0.00 0.00 40 1016.8
20260830194553 72 204 3.0 14.0 0.00 0.00 0.00 41 1016.9
20260830194451 72 257 4.0 14.0 0.00 0.00 0.00 41 1016.8
20260830194350 72 249 5.0 14.0 0.00 0.00 0.00 41 1016.9
20260830194307 72 263 5.0 14.0 0.00 0.00 0.00 40 1016.9
20260830194243 72 156 3.0 14.0 0.00 0.00 0.00 41 1016.9
20260830194207 72 166 2.0 12.0 0.00 0.00 0.00 41 1016.9
20260830194145 72 291 3.0 12.0 0.00 0.00 0.00 41 1016.9
20260830194122 72 150 4.0 12.0 0.00 0.00 0.00 42 1016.9
20260830194100 71 199 3.0 12.0 0.00 0.00 0.00 43 1016.9
20260830194039 71 278 3.0 12.0 0.00 0.00 0.00 44 1016.9
20260830194004 71 258 3.0 12.0 0.00 0.00 0.00 43 1017.0
20260830193943 71 207 5.0 14.0 0.00 0.00 0.00 43 1017.0
20260830193920 71 251 6.0 15.0 0.00 0.00 0.00 43 1017.0
20260830193857 71 241 4.0 15.0 0.00 0.00 0.00 42 1017.0
20260830193834 71 82 5.0 15.0 0.00 0.00 0.00 42 1017.0
20260830193759 71 126 4.0 15.0 0.00 0.00 0.00 43 1017.0
20260830193510 71 181 4.0 15.0 0.00 0.00 0.00 42 1017.0
20260830193448 71 217 5.0 15.0 0.00 0.00 0.00 42 1017.0
20260830193427 71 207 5.0 15.0 0.00 0.00 0.00 42 1017.1
20260830193351 71 282 6.0 15.0 0.00 0.00 0.00 42 1017.0
20260830193330 71 230 7.0 15.0 0.00 0.00 0.00 43 1017.0
20260830193307 71 275 6.0 14.0 0.00 0.00 0.00 43 1017.0
20260830193244 71 275 5.0 14.0 0.00 0.00 0.00 42 1017.0
20260830192939 71 222 5.0 14.0 0.00 0.00 0.00 43 1017.1
20260830192920 71 226 4.0 14.0 0.00 0.00 0.00 43 1017.0
20260830192629 71 184 4.0 11.0 0.00 0.00 0.00 43 1017.1
20260830192326 71 128 5.0 11.0 0.00 0.00 0.00 43 1017.0
20260830192305 71 197 6.0 11.0 0.00 0.00 0.00 42 1017.1
20260830192242 71 281 4.0 11.0 0.00 0.00 0.00 43 1017.1
20260830191949 71 205 5.0 11.0 0.00 0.00 0.00 43 1017.1
20260830191914 71 226 5.0 11.0 0.00 0.00 0.00 43 1017.1
20260830191852 71 239 5.0 11.0 0.00 0.00 0.00 43 1017.1
20260830191606 71 261 3.0 11.0 0.00 0.00 0.00 44 1017.0
20260830191545 71 248 4.0 11.0 0.00 0.00 0.00 44 1017.1
20260830191508 71 278 4.0 11.0 0.00 0.00 0.00 45 1017.2
20260830190948 70 276 2.0 11.0 0.00 0.00 0.00 47 1017.2
20260830190416 70 188 4.0 11.0 0.00 0.00 0.00 46 1017.2
20260830190354 70 245 4.0 11.0 0.00 0.00 0.00 46 1017.1
20260830190330 70 252 4.0 11.0 0.00 0.00 0.00 45 1017.1
20260830190023 70 264 4.0 11.0 0.00 0.00 0.00 47 1017.2
20260830185732 69 184 4.0 15.0 0.00 0.00 0.00 46 1017.1
20260830185712 69 228 5.0 15.0 0.00 0.00 0.00 46 1017.1
20260830184824 69 180 4.0 15.0 0.00 0.00 0.00 47 1017.3
20260830184723 69 191 4.0 15.0 0.00 0.00 0.00 47 1017.2
20260830184623 69 180 5.0 15.0 0.00 0.00 0.00 47 1017.2
20260830184537 69 159 8.0 15.0 0.00 0.00 0.00 46 1017.2
20260830184515 70 276 7.0 15.0 0.00 0.00 0.00 46 1017.3
20260830184451 70 212 3.0 13.0 0.00 0.00 0.00 47 1017.3
20260830184142 70 224 4.0 11.0 0.00 0.00 0.00 47 1017.3
20260830184105 70 165 4.0 11.0 0.00 0.00 0.00 47 1017.3
20260830184041 70 162 4.0 11.0 0.00 0.00 0.00 48 1017.3
20260830184020 70 246 4.0 11.0 0.00 0.00 0.00 47 1017.2
20260830183729 70 231 4.0 17.0 0.00 0.00 0.00 48 1017.4
20260830183651 70 182 5.0 17.0 0.00 0.00 0.00 46 1017.4
20260830183630 70 279 4.0 17.0 0.00 0.00 0.00 47 1017.4
20260830183606 70 180 3.0 17.0 0.00 0.00 0.00 47 1017.3
20260830183544 69 251 4.0 17.0 0.00 0.00 0.00 46 1017.4
20260830183004 69 216 6.0 17.0 0.00 0.00 0.00 46 1017.3
20260830182943 69 163 6.0 17.0 0.00 0.00 0.00 46 1017.3
20260830182611 69 282 4.0 13.0 0.00 0.00 0.00 48 1017.3
20260830182525 69 157 4.0 13.0 0.00 0.00 0.00 50 1017.4
20260830182502 69 132 3.0 13.0 0.00 0.00 0.00 50 1017.3
20260830182439 69 188 5.0 13.0 0.00 0.00 0.00 50 1017.3
20260830182108 69 153 4.0 13.0 0.00 0.00 0.00 49 1017.3
20260830182007 69 208 3.0 11.0 0.00 0.00 0.00 50 1017.3
20260830181907 69 193 3.0 11.0 0.00 0.00 0.00 50 1017.3
20260830181836 69 184 3.0 11.0 0.00 0.00 0.00 50 1017.3
20260830181812 69 227 3.0 11.0 0.00 0.00 0.00 50 1017.4
20260830181751 69 270 4.0 11.0 0.00 0.00 0.00 49 1017.4
20260830181417 69 182 7.0 11.0 0.00 0.00 0.00 49 1017.4
20260830181349 69 159 7.0 11.0 0.00 0.00 0.00 49 1017.4
20260830181328 69 158 6.0 11.0 0.00 0.00 0.00 49 1017.4
20260830181306 69 257 4.0 10.0 0.00 0.00 0.00 49 1017.5
20260830181000 69 136 2.0 15.0 0.00 0.00 0.00 50 1017.5
20260830180939 69 211 3.0 15.0 0.00 0.00 0.00 50 1017.5
20260830180645 68 252 5.0 15.0 0.00 0.00 0.00 50 1017.5
20260830180608 68 150 4.0 15.0 0.00 0.00 0.00 51 1017.5
20260830180547 68 168 3.0 15.0 0.00 0.00 0.00 52 1017.4
20260830180527 68 155 4.0 15.0 0.00 0.00 0.00 51 1017.5
20260830180232 68 251 7.0 15.0 0.00 0.00 0.00 51 1017.3
20260830180158 68 166 4.0 15.0 0.00 0.00 0.00 50 1017.4
20260830180134 68 161 6.0 15.0 0.00 0.00 0.00 51 1017.4
20260830180114 68 161 6.0 15.0 0.00 0.00 0.00 50 1017.5
20260830180051 67 186 5.0 15.0 0.00 0.00 0.00 50 1017.4
20260830175748 67 166 8.0 15.0 0.00 0.00 0.00 50 1017.4
20260830175454 67 196 4.0 15.0 0.00 0.00 0.00 51 1017.4
20260830175436 67 173 4.0 15.0 0.00 0.00 0.00 51 1017.4
20260830175131 67 201 5.0 15.0 0.00 0.00 0.00 51 1017.4
20260830175109 67 180 5.0 15.0 0.00 0.00 0.00 51 1017.4
20260830174817 67 233 5.0 15.0 0.00 0.00 0.00 52 1017.4
20260830174447 67 190 7.0 15.0 0.00 0.00 0.00 52 1017.5
20260830174347 67 179 5.0 15.0 0.00 0.00 0.00 51 1017.4
20260830174246 66 158 3.0 15.0 0.00 0.00 0.00 52 1017.5
20260830174145 66 179 4.0 11.0 0.00 0.00 0.00 51 1017.5
20260830174045 66 135 6.0 11.0 0.00 0.00 0.00 51 1017.5
20260830173946 66 209 5.0 12.0 0.00 0.00 0.00 52 1017.5
20260830173844 66 205 5.0 12.0 0.00 0.00 0.00 51 1017.4
20260830173750 66 198 6.0 12.0 0.00 0.00 0.00 52 1017.4
20260830173727 66 234 4.0 12.0 0.00 0.00 0.00 52 1017.4
20260830173705 66 234 4.0 12.0 0.00 0.00 0.00 53 1017.4
20260830173630 66 209 5.0 12.0 0.00 0.00 0.00 53 1017.4
20260830173604 66 151 5.0 12.0 0.00 0.00 0.00 53 1017.4
20260830173544 66 208 5.0 12.0 0.00 0.00 0.00 53 1017.4
20260830173524 66 223 6.0 12.0 0.00 0.00 0.00 53 1017.4
20260830173502 66 213 5.0 12.0 0.00 0.00 0.00 52 1017.4
20260830173429 66 96 4.0 12.0 0.00 0.00 0.00 53 1017.4
20260830172910 66 227 4.0 14.0 0.00 0.00 0.00 54 1017.4
20260830172847 66 192 4.0 14.0 0.00 0.00 0.00 54 1017.4
20260830172259 66 221 4.0 14.0 0.00 0.00 0.00 54 1017.4
20260830172237 66 213 3.0 14.0 0.00 0.00 0.00 55 1017.4
20260830172216 65 212 4.0 14.0 0.00 0.00 0.00 54 1017.4
20260830171833 65 165 4.0 14.0 0.00 0.00 0.00 54 1017.3
20260830171757 65 190 5.0 14.0 0.00 0.00 0.00 54 1017.4
20260830171734 65 256 4.0 13.0 0.00 0.00 0.00 55 1017.4
20260830171714 65 165 4.0 13.0 0.00 0.00 0.00 55 1017.4
20260830171332 65 246 6.0 14.0 0.00 0.00 0.00 54 1017.4
20260830171229 65 181 5.0 14.0 0.00 0.00 0.00 55 1017.4
20260830171158 65 263 5.0 14.0 0.00 0.00 0.00 55 1017.3
20260830171134 65 177 5.0 14.0 0.00 0.00 0.00 55 1017.4
20260830171100 65 156 5.0 14.0 0.00 0.00 0.00 55 1017.4
20260830170730 65 219 6.0 14.0 0.00 0.00 0.00 55 1017.4
20260830170629 65 238 7.0 14.0 0.00 0.00 0.00 55 1017.4
20260830170529 65 161 7.0 14.0 0.00 0.00 0.00 55 1017.3
20260830170428 65 160 7.0 13.0 0.00 0.00 0.00 55 1017.4
20260830170329 65 182 7.0 13.0 0.00 0.00 0.00 56 1017.4
20260830170227 65 170 6.0 13.0 0.00 0.00 0.00 55 1017.4
20260830170127 65 148 5.0 11.0 0.00 0.00 0.00 56 1017.4
20260830170025 65 225 4.0 14.0 0.00 0.00 0.00 56 1017.4
20260830165926 65 236 4.0 16.0 0.00 0.00 0.00 56 1017.5
20260830165824 65 213 5.0 16.0 0.00 0.00 0.00 55 1017.5
20260830165725 65 240 6.0 16.0 0.00 0.00 0.00 56 1017.5
20260830165623 65 227 4.0 16.0 0.00 0.00 0.00 56 1017.5
20260830165523 64 246 4.0 16.0 0.00 0.00 0.00 56 1017.4
20260830165422 64 246 5.0 16.0 0.00 0.00 0.00 56 1017.4
20260830165322 64 197 6.0 16.0 0.00 0.00 0.00 56 1017.4
20260830165248 64 271 7.0 16.0 0.00 0.00 0.00 56 1017.4
20260830165225 64 157 8.0 16.0 0.00 0.00 0.00 56 1017.4
20260830165204 64 211 6.0 16.0 0.00 0.00 0.00 56 1017.4
20260830164819 64 177 4.0 14.0 0.00 0.00 0.00 56 1017.4
20260830164719 64 244 5.0 14.0 0.00 0.00 0.00 56 1017.4
20260830164618 64 157 5.0 14.0 0.00 0.00 0.00 56 1017.4
20260830164518 64 232 4.0 14.0 0.00 0.00 0.00 56 1017.4
20260830164415 64 213 5.0 14.0 0.00 0.00 0.00 56 1017.4
20260830164316 64 209 8.0 14.0 0.00 0.00 0.00 56 1017.4
20260830164248 64 255 9.0 14.0 0.00 0.00 0.00 56 1017.5
20260830164226 64 178 8.0 12.0 0.00 0.00 0.00 57 1017.4
20260830164204 64 190 8.0 12.0 0.00 0.00 0.00 57 1017.4
20260830164131 64 180 7.0 11.0 0.00 0.00 0.00 57 1017.6
20260830163843 63 157 3.0 15.0 0.00 0.00 0.00 58 1017.5
20260830163513 63 235 6.0 15.0 0.00 0.00 0.00 58 1017.5
20260830163412 63 203 5.0 15.0 0.00 0.00 0.00 58 1017.5
20260830163311 63 168 5.0 18.0 0.00 0.00 0.00 58 1017.6
20260830163208 63 176 6.0 18.0 0.00 0.00 0.00 58 1017.6
20260830163110 63 194 7.0 18.0 0.00 0.00 0.00 59 1017.6
20260830163008 63 168 7.0 18.0 0.00 0.00 0.00 59 1017.6
20260830162908 63 153 6.0 18.0 0.00 0.00 0.00 59 1017.7
20260830162807 63 248 5.0 18.0 0.00 0.00 0.00 59 1017.7
20260830162709 63 326 7.0 18.0 0.00 0.00 0.00 59 1017.6
20260830162646 63 159 7.0 18.0 0.00 0.00 0.00 59 1017.6
20260830162623 63 214 7.0 18.0 0.00 0.00 0.00 58 1017.7
20260830162548 63 167 7.0 18.0 0.00 0.00 0.00 59 1017.5
20260830162253 63 279 4.0 15.0 0.00 0.00 0.00 59 1017.6
20260830162234 63 185 4.0 15.0 0.00 0.00 0.00 59 1017.6
20260830161904 63 213 6.0 15.0 0.00 0.00 0.00 59 1017.7
20260830161805 63 173 5.0 15.0 0.00 0.00 0.00 59 1017.6
20260830161743 63 169 6.0 14.0 0.00 0.00 0.00 59 1017.7
20260830161719 63 175 6.0 14.0 0.00 0.00 0.00 59 1017.7
20260830161659 63 242 4.0 14.0 0.00 0.00 0.00 59 1017.6
20260830161624 63 186 6.0 14.0 0.00 0.00 0.00 59 1017.6
20260830161601 63 209 8.0 15.0 0.00 0.00 0.00 59 1017.6
20260830161014 63 242 4.0 15.0 0.00 0.00 0.00 59 1017.7
20260830160940 63 165 3.0 15.0 0.00 0.00 0.00 60 1017.7
20260830160917 63 166 4.0 15.0 0.00 0.00 0.00 60 1017.7
20260830160855 62 157 4.0 15.0 0.00 0.00 0.00 60 1017.7
20260830160835 62 225 5.0 15.0 0.00 0.00 0.00 60 1017.7
20260830160812 62 35 7.0 15.0 0.00 0.00 0.00 60 1017.6
20260830160157 62 229 6.0 15.0 0.00 0.00 0.00 60 1017.6
20260830160125 62 237 7.0 15.0 0.00 0.00 0.00 60 1017.6
20260830160026 62 238 4.0 16.0 0.00 0.00 0.00 60 1017.6
20260830155655 62 250 5.0 16.0 0.00 0.00 0.00 60 1017.5
20260830155554 62 163 4.0 16.0 0.00 0.00 0.00 60 1017.6
20260830155453 62 329 4.0 16.0 0.00 0.00 0.00 60 1017.6
20260830155353 62 186 4.0 16.0 0.00 0.00 0.00 61 1017.5
20260830155252 62 183 3.0 16.0 0.00 0.00 0.00 61 1017.6
20260830155152 62 236 5.0 16.0 0.00 0.00 0.00 61 1017.5
20260830155051 62 199 6.0 16.0 0.00 0.00 0.00 61 1017.5
20260830154947 62 156 5.0 16.0 0.00 0.00 0.00 62 1017.5
20260830154845 62 217 5.0 14.0 0.00 0.00 0.00 61 1017.6
20260830154744 62 157 4.0 14.0 0.00 0.00 0.00 62 1017.6
20260830154643 62 177 3.0 14.0 0.00 0.00 0.00 62 1017.6
20260830154619 62 114 6.0 14.0 0.00 0.00 0.00 62 1017.5
20260830154555 61 193 5.0 14.0 0.00 0.00 0.00 62 1017.5
20260830154522 61 165 4.0 14.0 0.00 0.00 0.00 62 1017.5
20260830154501 61 213 5.0 13.0 0.00 0.00 0.00 62 1017.5
20260830154439 61 213 6.0 13.0 0.00 0.00 0.00 62 1017.5
20260830153838 61 165 5.0 13.0 0.00 0.00 0.00 63 1017.5
20260830153739 61 199 3.0 13.0 0.00 0.00 0.00 63 1017.5
20260830153654 61 165 3.0 13.0 0.00 0.00 0.00 63 1017.5
20260830153632 61 50 5.0 13.0 0.00 0.00 0.00 63 1017.4
20260830153610 61 213 4.0 13.0 0.00 0.00 0.00 63 1017.5
20260830153535 61 225 4.0 14.0 0.00 0.00 0.00 63 1017.3
20260830153513 61 227 6.0 14.0 0.00 0.00 0.00 63 1017.5
20260830153453 61 227 6.0 14.0 0.00 0.00 0.00 63 1017.5
20260830153430 61 159 6.0 14.0 0.00 0.00 0.00 63 1017.4
20260830153127 61 215 4.0 14.0 0.00 0.00 0.00 63 1017.4
20260830153107 61 180 3.0 14.0 0.00 0.00 0.00 63 1017.5
20260830153046 61 171 4.0 14.0 0.00 0.00 0.00 63 1017.5
20260830153023 61 216 5.0 14.0 0.00 0.00 0.00 63 1017.5
20260830153002 61 26 5.0 14.0 0.00 0.00 0.00 63 1017.5
20260830152927 61 186 5.0 10.0 0.00 0.00 0.00 63 1017.5
20260830152905 61 225 5.0 10.0 0.00 0.00 0.00 63 1017.5
20260830152845 61 237 5.0 10.0 0.00 0.00 0.00 63 1017.5
20260830152552 61 171 6.0 11.0 0.00 0.00 0.00 63 1017.5
20260830152517 61 159 4.0 11.0 0.00 0.00 0.00 63 1017.5
20260830152227 61 175 3.0 11.0 0.00 0.00 0.00 63 1017.5
20260830151937 60 227 5.0 11.0 0.00 0.00 0.00 63 1017.5
20260830151403 60 232 3.0 12.0 0.00 0.00 0.00 63 1017.5
20260830151342 60 234 4.0 12.0 0.00 0.00 0.00 63 1017.4
20260830151039 60 240 3.0 12.0 0.00 0.00 0.00 63 1017.4
20260830151019 60 183 3.0 12.0 0.00 0.00 0.00 63 1017.5
20260830150955 60 232 4.0 12.0 0.00 0.00 0.00 63 1017.4
20260830150706 60 187 4.0 12.0 0.00 0.00 0.00 64 1017.4
20260830150359 60 210 2.0 12.0 0.00 0.00 0.00 64 1017.3
20260830150340 60 245 1.0 12.0 0.00 0.00 0.00 64 1017.3
20260830150319 60 146 3.0 12.0 0.00 0.00 0.00 64 1017.3
20260830150258 60 269 4.0 12.0 0.00 0.00 0.00 64 1017.3
20260830150220 60 151 5.0 12.0 0.00 0.00 0.00 64 1017.4
20260830150200 60 232 5.0 10.0 0.00 0.00 0.00 64 1017.3
20260830145910 60 199 5.0 10.0 0.00 0.00 0.00 64 1017.3
20260830145604 60 249 4.0 9.0 0.00 0.00 0.00 65 1017.3
20260830145543 60 267 5.0 11.0 0.00 0.00 0.00 65 1017.3
20260830145520 60 160 4.0 11.0 0.00 0.00 0.00 65 1017.3
20260830145458 60 261 3.0 11.0 0.00 0.00 0.00 65 1017.3
20260830145155 59 309 3.0 11.0 0.00 0.00 0.00 65 1017.3
20260830145133 59 190 4.0 11.0 0.00 0.00 0.00 65 1017.3
20260830145112 59 148 4.0 11.0 0.00 0.00 0.00 65 1017.4
20260830145053 59 184 3.0 11.0 0.00 0.00 0.00 65 1017.4
20260830145032 59 187 6.0 11.0 0.00 0.00 0.00 65 1017.4
20260830143920 59 163 5.0 11.0 0.00 0.00 0.00 65 1017.4
20260830143843 59 174 5.0 11.0 0.00 0.00 0.00 65 1017.3
20260830143821 59 179 5.0 11.0 0.00 0.00 0.00 65 1017.4
20260830143759 59 171 4.0 11.0 0.00 0.00 0.00 65 1017.3
20260830143739 59 182 2.0 10.0 0.00 0.00 0.00 65 1017.3
20260830143432 59 243 3.0 10.0 0.00 0.00 0.00 66 1017.3
20260830143102 59 165 2.0 11.0 0.00 0.00 0.00 66 1017.3
20260830143001 59 148 4.0 11.0 0.00 0.00 0.00 66 1017.3
20260830142902 59 171 4.0 11.0 0.00 0.00 0.00 66 1017.2
20260830142801 59 146 0.0 11.0 0.00 0.00 0.00 66 1017.2
20260830142704 59 245 1.0 11.0 0.00 0.00 0.00 66 1017.2
20260830142624 59 245 3.0 11.0 0.00 0.00 0.00 67 1017.2
20260830142602 59 207 4.0 11.0 0.00 0.00 0.00 66 1017.2
20260830142538 59 234 6.0 11.0 0.00 0.00 0.00 67 1017.2
20260830142503 58 182 5.0 11.0 0.00 0.00 0.00 67 1017.2
20260830142442 58 188 3.0 11.0 0.00 0.00 0.00 67 1017.2
20260830142421 58 165 3.0 10.0 0.00 0.00 0.00 67 1017.3
20260830142400 58 238 4.0 10.0 0.00 0.00 0.00 67 1017.2
20260830142056 58 167 3.0 10.0 0.00 0.00 0.00 68 1017.2
20260830142035 58 171 4.0 9.0 0.00 0.00 0.00 68 1017.1
20260830142013 58 175 3.0 8.0 0.00 0.00 0.00 68 1017.1
20260830141721 58 211 2.0 7.0 0.00 0.00 0.00 69 1017.1
20260830141646 58 219 2.0 7.0 0.00 0.00 0.00 69 1017.1
20260830141623 57 190 2.0 7.0 0.00 0.00 0.00 69 1017.1
20260830141336 57 223 2.0 7.0 0.00 0.00 0.00 69 1017.2
20260830141314 57 201 2.0 7.0 0.00 0.00 0.00 69 1017.1
20260830141241 57 218 2.0 6.0 0.00 0.00 0.00 69 1017.1
20260830141219 57 207 3.0 6.0 0.00 0.00 0.00 69 1017.2
20260830141159 57 238 3.0 6.0 0.00 0.00 0.00 70 1017.2
20260830140903 57 237 1.0 6.0 0.00 0.00 0.00 70 1017.2
20260830140600 57 221 2.0 6.0 0.00 0.00 0.00 69 1017.2
20260830140539 57 190 2.0 6.0 0.00 0.00 0.00 70 1017.2
20260830140519 57 243 2.0 6.0 0.00 0.00 0.00 69 1017.2
20260830140213 57 164 1.0 5.0 0.00 0.00 0.00 70 1017.2
20260830140151 57 167 2.0 9.0 0.00 0.00 0.00 70 1017.3
20260830135900 56 221 1.0 9.0 0.00 0.00 0.00 70 1017.2
20260830135839 56 265 2.0 9.0 0.00 0.00 0.00 70 1017.2
20260830135306 56 225 1.0 9.0 0.00 0.00 0.00 70 1017.2
20260830135242 56 165 2.0 9.0 0.00 0.00 0.00 70 1017.2
20260830134629 56 207 2.0 8.0 0.00 0.00 0.00 70 1017.2
20260830134529 56 190 3.0 8.0 0.00 0.00 0.00 70 1017.2
20260830134429 56 171 3.0 8.0 0.00 0.00 0.00 70 1017.2
20260830134331 56 202 2.0 8.0 0.00 0.00 0.00 70 1017.2
20260830134243 56 244 3.0 5.0 0.00 0.00 0.00 70 1017.3
20260830134221 56 163 2.0 5.0 0.00 0.00 0.00 70 1017.3
20260830134158 56 221 1.0 5.0 0.00 0.00 0.00 70 1017.3
20260830133826 56 194 2.0 5.0 0.00 0.00 0.00 70 1017.3
20260830133725 56 227 2.0 5.0 0.00 0.00 0.00 69 1017.2
20260830133636 56 211 1.0 5.0 0.00 0.00 0.00 70 1017.2
20260830133614 56 242 2.0 5.0 0.00 0.00 0.00 69 1017.2
20260830133553 56 236 3.0 5.0 0.00 0.00 0.00 69 1017.2
20260830133212 56 162 2.0 5.0 0.00 0.00 0.00 69 1017.2
20260830133112 56 197 2.0 6.0 0.00 0.00 0.00 69 1017.2
20260830133011 56 229 2.0 7.0 0.00 0.00 0.00 69 1017.2
20260830132910 56 162 2.0 7.0 0.00 0.00 0.00 69 1017.2
20260830132815 56 221 2.0 7.0 0.00 0.00 0.00 69 1017.2
20260830132732 56 213 2.0 7.0 0.00 0.00 0.00 69 1017.2
20260830132708 56 192 2.0 7.0 0.00 0.00 0.00 69 1017.2
20260830132648 56 171 2.0 7.0 0.00 0.00 0.00 69 1017.1
20260830132627 56 203 1.0 7.0 0.00 0.00 0.00 69 1017.2
20260830132603 56 227 3.0 7.0 0.00 0.00 0.00 69 1017.1
20260830132528 56 281 3.0 7.0 0.00 0.00 0.00 69 1017.1
20260830132007 56 204 4.0 8.0 0.00 0.00 0.00 69 1017.2
20260830131946 56 194 3.0 8.0 0.00 0.00 0.00 69 1017.1
20260830131912 56 183 2.0 8.0 0.00 0.00 0.00 69 1017.2
20260830131852 56 207 3.0 8.0 0.00 0.00 0.00 69 1017.1
20260830131828 56 207 4.0 8.0 0.00 0.00 0.00 69 1017.1
20260830131539 56 149 3.0 8.0 0.00 0.00 0.00 69 1017.1
20260830131233 56 211 2.0 8.0 0.00 0.00 0.00 69 1017.0
20260830130901 56 215 3.0 6.0 0.00 0.00 0.00 69 1017.0
20260830130805 56 173 2.0 6.0 0.00 0.00 0.00 69 1017.0
20260830130701 56 227 2.0 5.0 0.00 0.00 0.00 69 1017.0
20260830130602 56 194 2.0 10.0 0.00 0.00 0.00 69 1017.0
20260830130502 56 200 2.0 10.0 0.00 0.00 0.00 69 1017.0
20260830130403 56 215 2.0 10.0 0.00 0.00 0.00 69 1017.0
20260830130304 56 192 2.0 10.0 0.00 0.00 0.00 69 1017.0
20260830130201 56 184 2.0 10.0 0.00 0.00 0.00 69 1017.0
20260830130101 56 246 2.0 10.0 0.00 0.00 0.00 69 1017.0
20260830130029 56 193 2.0 10.0 0.00 0.00 0.00 69 1016.9
20260830130004 56 226 3.0 10.0 0.00 0.00 0.00 69 1016.9
20260830125943 56 229 2.0 10.0 0.00 0.00 0.00 69 1016.9
20260830125600 56 157 3.0 9.0 0.00 0.00 0.00 69 1016.9
20260830125501 56 144 2.0 9.0 0.00 0.00 0.00 69 1016.9
20260830125402 56 204 2.0 9.0 0.00 0.00 0.00 69 1016.9
20260830125301 56 186 3.0 9.0 0.00 0.00 0.00 69 1017.0
20260830125202 56 234 4.0 9.0 0.00 0.00 0.00 69 1017.0
20260830125112 56 184 4.0 9.0 0.00 0.00 0.00 69 1017.0
20260830125052 56 198 5.0 9.0 0.00 0.00 0.00 69 1016.9
20260830125033 56 167 4.0 9.0 0.00 0.00 0.00 69 1017.0
20260830124716 56 183 2.0 8.0 0.00 0.00 0.00 69 1017.0
20260830124653 56 253 2.0 7.0 0.00 0.00 0.00 69 1017.0
20260830124633 56 202 2.0 7.0 0.00 0.00 0.00 69 1017.0
20260830124301 56 193 3.0 7.0 0.00 0.00 0.00 68 1016.9
20260830124201 56 174 4.0 7.0 0.00 0.00 0.00 68 1016.9
20260830124115 56 146 4.0 7.0 0.00 0.00 0.00 68 1016.9
20260830124053 56 188 2.0 7.0 0.00 0.00 0.00 68 1017.0
20260830124031 57 184 2.0 7.0 0.00 0.00 0.00 68 1016.9
20260830124011 57 190 2.0 7.0 0.00 0.00 0.00 68 1016.9
20260830123937 57 222 2.0 7.0 0.00 0.00 0.00 68 1016.9
20260830123646 57 215 2.0 7.0 0.00 0.00 0.00 68 1017.0
20260830123625 57 251 2.0 6.0 0.00 0.00 0.00 68 1017.0
20260830123600 57 182 2.0 6.0 0.00 0.00 0.00 68 1017.0
20260830123257 57 240 2.0 5.0 0.00 0.00 0.00 68 1017.0
20260830123005 57 242 1.0 6.0 0.00 0.00 0.00 67 1017.0
20260830122943 57 199 1.0 6.0 0.00 0.00 0.00 67 1017.0
20260830122622 57 249 2.0 6.0 0.00 0.00 0.00 67 1017.0
20260830122602 57 189 1.0 6.0 0.00 0.00 0.00 67 1017.0
20260830122541 57 207 1.0 6.0 0.00 0.00 0.00 67 1017.0
20260830122232 57 191 2.0 6.0 0.00 0.00 0.00 67 1017.0
20260830122214 57 167 2.0 6.0 0.00 0.00 0.00 67 1016.9
20260830122150 57 217 1.0 6.0 0.00 0.00 0.00 67 1017.0
20260830122131 57 170 0.0 6.0 0.00 0.00 0.00 67 1016.9
20260830122110 57 111 0.0 6.0 0.00 0.00 0.00 67 1017.0
20260830122037 57 190 0.0 6.0 0.00 0.00 0.00 67 1016.9
20260830122018 57 232 1.0 6.0 0.00 0.00 0.00 67 1016.9
20260830122000 57 232 2.0 6.0 0.00 0.00 0.00 67 1016.9
20260830121938 57 226 2.0 6.0 0.00 0.00 0.00 67 1016.9
20260830121632 57 203 2.0 6.0 0.00 0.00 0.00 67 1016.9
20260830121612 57 168 2.0 6.0 0.00 0.00 0.00 67 1016.9
20260830121550 57 181 2.0 6.0 0.00 0.00 0.00 67 1016.9
20260830121016 57 200 1.0 4.0 0.00 0.00 0.00 68 1016.9
20260830120729 57 169 0.0 5.0 0.00 0.00 0.00 68 1016.9
20260830120437 57 198 1.0 5.0 0.00 0.00 0.00 68 1016.8
20260830120130 57 208 2.0 5.0 0.00 0.00 0.00 68 1016.8
20260830120108 57 182 1.0 5.0 0.00 0.00 0.00 68 1016.8
20260830120045 57 159 1.0 5.0 0.00 0.00 0.00 68 1016.8
20260830115739 57 193 2.0 5.0 0.00 0.00 0.00 69 1016.9
20260830115718 57 163 1.0 5.0 0.00 0.00 0.00 69 1016.9
20260830115422 56 182 1.0 5.0 0.00 0.00 0.00 69 1016.8
20260830115400 57 186 1.0 5.0 0.00 0.00 0.00 69 1016.8
20260830115325 56 152 1.0 5.0 0.00 0.00 0.00 69 1016.9
20260830115306 56 221 2.0 5.0 0.00 0.00 0.00 69 1016.8
20260830115011 56 143 2.0 5.0 0.00 0.00 0.00 69 1016.8
20260830114639 56 196 2.0 5.0 0.00 0.00 0.00 69 1016.9
20260830114553 56 173 2.0 5.0 0.00 0.00 0.00 69 1016.9
20260830114530 56 203 1.0 5.0 0.00 0.00 0.00 69 1016.9
20260830114507 56 185 1.0 5.0 0.00 0.00 0.00 69 1016.8
20260830114137 57 175 2.0 5.0 0.00 0.00 0.00 69 1016.8
20260830114036 57 175 2.0 5.0 0.00 0.00 0.00 69 1016.8
20260830113935 57 216 2.0 4.0 0.00 0.00 0.00 69 1016.8
20260830113834 57 214 3.0 4.0 0.00 0.00 0.00 69 1016.8
20260830113735 57 182 2.0 5.0 0.00 0.00 0.00 69 1016.9
20260830113634 57 159 2.0 5.0 0.00 0.00 0.00 69 1016.9
20260830113542 57 186 2.0 5.0 0.00 0.00 0.00 69 1016.9
20260830113521 57 145 2.0 5.0 0.00 0.00 0.00 69 1016.9
20260830113459 57 201 2.0 5.0 0.00 0.00 0.00 69 1016.9
20260830113129 57 171 2.0 5.0 0.00 0.00 0.00 69 1016.9
20260830113031 57 159 2.0 5.0 0.00 0.00 0.00 69 1016.9
20260830112956 57 150 2.0 5.0 0.00 0.00 0.00 69 1016.8
20260830112933 57 166 2.0 5.0 0.00 0.00 0.00 69 1016.8
20260830112913 57 155 1.0 5.0 0.00 0.00 0.00 69 1016.8
20260830112527 57 186 2.0 5.0 0.00 0.00 0.00 69 1016.8
20260830112428 57 150 3.0 5.0 0.00 0.00 0.00 69 1016.8
20260830112327 57 175 3.0 5.0 0.00 0.00 0.00 69 1016.8
20260830112227 57 173 2.0 5.0 0.00 0.00 0.00 70 1016.8
20260830112126 57 176 2.0 5.0 0.00 0.00 0.00 69 1016.8
20260830112101 57 172 2.0 5.0 0.00 0.00 0.00 69 1016.8
20260830112039 57 178 3.0 5.0 0.00 0.00 0.00 69 1016.8
20260830111714 57 186 2.0 6.0 0.00 0.00 0.00 69 1016.7
20260830111605 57 191 1.0 6.0 0.00 0.00 0.00 69 1016.8
20260830111501 57 182 1.0 6.0 0.00 0.00 0.00 69 1016.8
20260830111411 57 184 2.0 6.0 0.00 0.00 0.00 69 1016.8
20260830111346 57 181 1.0 6.0 0.00 0.00 0.00 69 1016.8
20260830111326 57 153 1.0 6.0 0.00 0.00 0.00 69 1016.8
20260830111252 57 184 2.0 6.0 0.00 0.00 0.00 69 1016.8
20260830111233 57 190 2.0 6.0 0.00 0.00 0.00 69 1016.8
20260830110941 57 170 1.0 6.0 0.00 0.00 0.00 69 1016.8
20260830110602 57 194 4.0 6.0 0.00 0.00 0.00 69 1016.8
20260830110518 57 160 3.0 6.0 0.00 0.00 0.00 69 1016.8
20260830110455 57 169 1.0 6.0 0.00 0.00 0.00 69 1016.8
20260830110433 57 154 0.0 3.0 0.00 0.00 0.00 69 1016.8
20260830110054 57 204 0.0 4.0 0.00 0.00 0.00 69 1016.8
20260830105942 57 204 0.0 4.0 0.00 0.00 0.00 69 1016.8
20260830105837 57 204 1.0 4.0 0.00 0.00 0.00 69 1016.8
20260830105733 57 204 1.0 4.0 0.00 0.00 0.00 69 1016.8
20260830105632 57 146 0.0 4.0 0.00 0.00 0.00 69 1016.8
20260830105530 57 211 0.0 4.0 0.00 0.00 0.00 69 1016.8
20260830105431 57 211 0.0 4.0 0.00 0.00 0.00 69 1016.8
20260830105331 57 211 1.0 4.0 0.00 0.00 0.00 69 1016.8
20260830105228 57 211 2.0 4.0 0.00 0.00 0.00 69 1016.8
20260830105130 57 209 1.0 4.0 0.00 0.00 0.00 68 1016.8
20260830105029 57 173 0.0 4.0 0.00 0.00 0.00 68 1016.8
20260830104931 57 198 0.0 6.0 0.00 0.00 0.00 68 1016.8
20260830104830 57 198 1.0 6.0 0.00 0.00 0.00 68 1016.8
20260830104731 57 198 2.0 6.0 0.00 0.00 0.00 68 1016.8
20260830104644 57 184 2.0 6.0 0.00 0.00 0.00 68 1016.7
20260830104622 57 181 1.0 6.0 0.00 0.00 0.00 68 1016.7
20260830104600 57 155 1.0 6.0 0.00 0.00 0.00 68 1016.8
20260830104256 57 215 3.0 6.0 0.00 0.00 0.00 68 1016.8
20260830104220 57 164 3.0 6.0 0.00 0.00 0.00 68 1016.8
20260830104159 57 175 3.0 6.0 0.00 0.00 0.00 68 1016.8
20260830103831 57 180 2.0 5.0 0.00 0.00 0.00 68 1016.8
20260830103729 57 175 1.0 5.0 0.00 0.00 0.00 68 1016.7
20260830103643 57 165 1.0 6.0 0.00 0.00 0.00 68 1016.7
20260830103622 57 275 2.0 6.0 0.00 0.00 0.00 67 1016.8
20260830103602 57 277 2.0 6.0 0.00 0.00 0.00 67 1016.8
20260830103538 57 202 2.0 6.0 0.00 0.00 0.00 67 1016.7
20260830103517 57 205 1.0 6.0 0.00 0.00 0.00 67 1016.7
20260830103443 57 182 2.0 6.0 0.00 0.00 0.00 67 1016.7
20260830103423 57 205 1.0 6.0 0.00 0.00 0.00 67 1016.8
20260830103403 57 193 1.0 6.0 0.00 0.00 0.00 67 1016.8
20260830103110 58 259 2.0 6.0 0.00 0.00 0.00 66 1016.7
20260830102808 58 213 0.0 3.0 0.00 0.00 0.00 66 1016.8
20260830102520 58 190 0.0 4.0 0.00 0.00 0.00 66 1016.7
20260830102214 58 209 1.0 4.0 0.00 0.00 0.00 66 1016.6
20260830102155 58 221 1.0 4.0 0.00 0.00 0.00 66 1016.6
20260830102132 58 244 2.0 4.0 0.00 0.00 0.00 65 1016.6
20260830101839 58 188 2.0 5.0 0.00 0.00 0.00 65 1016.6
20260830101804 58 179 2.0 5.0 0.00 0.00 0.00 65 1016.6
20260830101744 58 207 2.0 5.0 0.00 0.00 0.00 65 1016.7
20260830101450 58 213 1.0 5.0 0.00 0.00 0.00 65 1016.6
20260830101118 58 223 0.0 5.0 0.00 0.00 0.00 65 1016.6
20260830101019 58 242 1.0 5.0 0.00 0.00 0.00 65 1016.6
20260830100919 58 242 2.0 5.0 0.00 0.00 0.00 65 1016.6
20260830100818 58 245 1.0 5.0 0.00 0.00 0.00 64 1016.6
20260830100717 58 211 1.0 4.0 0.00 0.00 0.00 64 1016.6
20260830100616 58 211 2.0 5.0 0.00 0.00 0.00 64 1016.6
20260830100514 58 225 2.0 5.0 0.00 0.00 0.00 64 1016.6
20260830100414 58 232 1.0 5.0 0.00 0.00 0.00 64 1016.6
20260830100313 58 250 1.0 5.0 0.00 0.00 0.00 64 1016.6
20260830100212 58 279 1.0 5.0 0.00 0.00 0.00 64 1016.6
20260830100116 58 252 1.0 5.0 0.00 0.00 0.00 64 1016.6
20260830100015 58 255 2.0 5.0 0.00 0.00 0.00 64 1016.6
20260830095912 58 186 2.0 5.0 0.00 0.00 0.00 64 1016.6
20260830095811 58 219 2.0 5.0 0.00 0.00 0.00 64 1016.6
20260830095711 58 198 2.0 5.0 0.00 0.00 0.00 64 1016.4
20260830095610 58 197 2.0 5.0 0.00 0.00 0.00 64 1016.6
20260830095509 58 202 0.0 5.0 0.00 0.00 0.00 64 1016.6
20260830095408 57 194 0.0 4.0 0.00 0.00 0.00 64 1016.6
20260830095308 57 194 1.0 6.0 0.00 0.00 0.00 64 1016.6
20260830095231 57 184 1.0 6.0 0.00 0.00 0.00 63 1016.4
20260830095156 57 238 0.0 6.0 0.00 0.00 0.00 63 1016.4
20260830095134 57 221 0.0 6.0 0.00 0.00 0.00 63 1016.6
20260830094805 57 193 1.0 6.0 0.00 0.00 0.00 62 1016.4
20260830094705 57 193 1.0 6.0 0.00 0.00 0.00 62 1016.4
20260830094601 57 199 1.0 6.0 0.00 0.00 0.00 61 1016.4
20260830094504 57 202 0.0 6.0 0.00 0.00 0.00 61 1016.4
20260830094442 57 172 0.0 5.0 0.00 0.00 0.00 60 1016.4
20260830094422 57 184 0.0 3.0 0.00 0.00 0.00 60 1016.4
20260830094359 58 184 0.0 3.0 0.00 0.00 0.00 60 1016.4
20260830094329 58 184 0.0 3.0 0.00 0.00 0.00 60 1016.3
20260830094305 58 184 0.0 3.0 0.00 0.00 0.00 60 1016.4
20260830094246 58 184 0.0 3.0 0.00 0.00 0.00 60 1016.4
20260830093956 58 184 1.0 4.0 0.00 0.00 0.00 60 1016.3
20260830093341 58 169 0.0 4.0 0.00 0.00 0.00 59 1016.4
20260830093301 58 169 0.0 4.0 0.00 0.00 0.00 59 1016.3
20260830093239 58 169 1.0 4.0 0.00 0.00 0.00 59 1016.3
20260830093206 58 166 1.0 4.0 0.00 0.00 0.00 59 1016.3
20260830092830 58 176 2.0 4.0 0.00 0.00 0.00 59 1016.2
20260830092729 58 171 2.0 4.0 0.00 0.00 0.00 59 1016.2
20260830092632 58 165 1.0 2.0 0.00 0.00 0.00 59 1016.2
20260830092529 58 190 1.0 1.0 0.00 0.00 0.00 58 1016.2
20260830092431 58 174 0.0 2.0 0.00 0.00 0.00 58 1016.2
20260830092329 58 215 0.0 2.0 0.00 0.00 0.00 58 1016.2
20260830092231 58 215 0.0 3.0 0.00 0.00 0.00 58 1016.3
20260830092128 58 225 0.0 3.0 0.00 0.00 0.00 57 1016.3
20260830092029 58 226 0.0 3.0 0.00 0.00 0.00 57 1016.3
20260830091928 58 262 0.0 3.0 0.00 0.00 0.00 57 1016.3
20260830091829 58 269 0.0 3.0 0.00 0.00 0.00 57 1016.3
20260830091730 58 266 1.0 3.0 0.00 0.00 0.00 57 1016.3
20260830091628 58 265 0.0 3.0 0.00 0.00 0.00 57 1016.3
20260830091520 58 269 1.0 3.0 0.00 0.00 0.00 57 1016.3
20260830091422 58 214 1.0 3.0 0.00 0.00 0.00 57 1016.3
20260830091311 58 196 0.0 3.0 0.00 0.00 0.00 57 1016.3
20260830091210 58 202 0.0 2.0 0.00 0.00 0.00 57 1016.3
20260830091115 58 224 0.0 2.0 0.00 0.00 0.00 57 1016.3
20260830091004 58 224 1.0 2.0 0.00 0.00 0.00 56 1016.3
20260830090901 58 224 1.0 2.0 0.00 0.00 0.00 56 1016.3
20260830090805 58 177 0.0 2.0 0.00 0.00 0.00 56 1016.3
20260830090705 58 249 0.0 2.0 0.00 0.00 0.00 56 1016.3
20260830090625 58 211 0.0 2.0 0.00 0.00 0.00 56 1016.3
20260830090550 58 211 0.0 2.0 0.00 0.00 0.00 56 1016.3
20260830090531 58 211 0.0 2.0 0.00 0.00 0.00 56 1016.2
20260830090201 58 211 1.0 2.0 0.00 0.00 0.00 56 1016.2
20260830090108 58 211 0.0 2.0 0.00 0.00 0.00 56 1016.2
20260830090004 58 227 0.0 2.0 0.00 0.00 0.00 56 1016.2
20260830085903 58 273 0.0 3.0 0.00 0.00 0.00 56 1016.1
20260830085804 58 273 1.0 3.0 0.00 0.00 0.00 56 1016.1
20260830085700 58 273 1.0 3.0 0.00 0.00 0.00 56 1016.1
20260830085611 58 212 0.0 3.0 0.00 0.00 0.00 56 1016.1
20260830085511 58 194 0.0 3.0 0.00 0.00 0.00 56 1016.1
20260830085451 58 196 0.0 3.0 0.00 0.00 0.00 56 1016.1
20260830085430 58 210 0.0 3.0 0.00 0.00 0.00 56 1016.0
20260830085107 58 210 2.0 3.0 0.00 0.00 0.00 56 1016.1
20260830085005 58 240 1.0 3.0 0.00 0.00 0.00 56 1016.1
20260830084903 58 204 1.0 3.0 0.00 0.00 0.00 56 1016.1
20260830084803 58 207 1.0 3.0 0.00 0.00 0.00 56 1016.1
20260830084701 58 188 1.0 3.0 0.00 0.00 0.00 56 1016.1
20260830084611 58 171 1.0 3.0 0.00 0.00 0.00 56 1016.1
20260830084501 58 221 0.0 3.0 0.00 0.00 0.00 56 1016.1
20260830084403 58 250 1.0 3.0 0.00 0.00 0.00 56 1016.1
20260830084302 58 256 1.0 3.0 0.00 0.00 0.00 56 1016.1
20260830084206 58 246 1.0 3.0 0.00 0.00 0.00 56 1016.1
20260830084109 58 216 1.0 3.0 0.00 0.00 0.00 56 1016.1
20260830084003 58 240 1.0 3.0 0.00 0.00 0.00 56 1016.1
20260830083900 58 217 1.0 3.0 0.00 0.00 0.00 56 1016.1
20260830083801 58 188 1.0 3.0 0.00 0.00 0.00 56 1016.1
20260830083700 58 207 1.0 3.0 0.00 0.00 0.00 56 1016.1
20260830083607 58 233 1.0 3.0 0.00 0.00 0.00 56 1016.1
20260830083511 58 190 1.0 2.0 0.00 0.00 0.00 56 1016.1
20260830083453 58 188 1.0 2.0 0.00 0.00 0.00 56 1016.1
20260830083431 58 187 0.0 2.0 0.00 0.00 0.00 56 1016.2
20260830083106 58 265 0.0 3.0 0.00 0.00 0.00 56 1016.1
20260830083013 58 165 0.0 3.0 0.00 0.00 0.00 56 1016.2
20260830082950 58 165 0.0 3.0 0.00 0.00 0.00 56 1016.2
20260830082930 58 165 0.0 3.0 0.00 0.00 0.00 56 1016.2
20260830082908 58 165 0.0 4.0 0.00 0.00 0.00 56 1016.2
20260830082852 58 200 0.0 4.0 0.00 0.00 0.00 56 1016.2
20260830082816 58 200 0.0 5.0 0.00 0.00 0.00 56 1016.2
20260830082757 58 200 1.0 5.0 0.00 0.00 0.00 56 1016.1
20260830082501 58 184 1.0 5.0 0.00 0.00 0.00 56 1016.1
20260830082157 58 211 2.0 5.0 0.00 0.00 0.00 56 1016.2
20260830082134 58 302 2.0 5.0 0.00 0.00 0.00 55 1016.2
20260830082115 58 254 2.0 5.0 0.00 0.00 0.00 56 1016.1
20260830082050 58 236 2.0 5.0 0.00 0.00 0.00 55 1016.1
20260830081749 58 189 1.0 4.0 0.00 0.00 0.00 56 1016.2
20260830081457 58 275 0.0 3.0 0.00 0.00 0.00 55 1016.1
20260830081204 58 191 0.0 3.0 0.00 0.00 0.00 55 1016.1
20260830081131 58 158 0.0 3.0 0.00 0.00 0.00 55 1016.1
20260830080815 58 158 1.0 3.0 0.00 0.00 0.00 55 1016.1
20260830080754 58 158 1.0 3.0 0.00 0.00 0.00 55 1016.1
20260830080735 58 157 0.0 3.0 0.00 0.00 0.00 55 1016.1
20260830080700 58 178 0.0 3.0 0.00 0.00 0.00 55 1016.1
20260830080410 58 279 0.0 3.0 0.00 0.00 0.00 55 1016.1
20260830080033 58 279 0.0 3.0 0.00 0.00 0.00 55 1016.0
20260830075931 58 279 0.0 3.0 0.00 0.00 0.00 55 1016.0
20260830075830 58 279 1.0 3.0 0.00 0.00 0.00 55 1016.0
20260830075735 58 209 2.0 3.0 0.00 0.00 0.00 55 1016.0
20260830075631 58 223 2.0 3.0 0.00 0.00 0.00 55 1016.0
20260830075532 58 194 0.0 3.0 0.00 0.00 0.00 55 1016.0
20260830075429 58 201 0.0 2.0 0.00 0.00 0.00 55 1016.0
20260830075331 58 176 0.0 3.0 0.00 0.00 0.00 55 1016.0
20260830075231 58 176 1.0 3.0 0.00 0.00 0.00 55 1016.0
20260830075156 58 175 0.0 3.0 0.00 0.00 0.00 55 1016.0
20260830075120 58 150 0.0 3.0 0.00 0.00 0.00 55 1016.0
20260830075100 58 209 0.0 3.0 0.00 0.00 0.00 55 1016.0
20260830074731 58 200 0.0 3.0 0.00 0.00 0.00 55 1016.0
20260830074655 58 192 1.0 3.0 0.00 0.00 0.00 55 1016.0
20260830074618 58 188 1.0 3.0 0.00 0.00 0.00 54 1015.9
20260830074557 58 192 0.0 3.0 0.00 0.00 0.00 55 1016.0
20260830074217 58 219 0.0 0.0 0.00 0.00 0.00 54 1015.9
20260830074104 58 219 0.0 0.0 0.00 0.00 0.00 54 1016.0
20260830074003 58 219 0.0 2.0 0.00 0.00 0.00 54 1015.9
20260830073904 58 219 0.0 2.0 0.00 0.00 0.00 54 1015.9
20260830073803 58 219 0.0 2.0 0.00 0.00 0.00 54 1016.0
20260830073702 59 219 0.0 2.0 0.00 0.00 0.00 54 1015.9
20260830073600 59 219 0.0 2.0 0.00 0.00 0.00 54 1015.9
20260830073502 59 219 0.0 2.0 0.00 0.00 0.00 54 1015.9
20260830073400 59 219 0.0 2.0 0.00 0.00 0.00 54 1016.0
20260830073302 59 219 1.0 2.0 0.00 0.00 0.00 53 1016.0
20260830073201 59 219 1.0 2.0 0.00 0.00 0.00 53 1016.0
20260830073124 59 219 0.0 2.0 0.00 0.00 0.00 53 1015.9
20260830073048 59 169 0.0 1.0 0.00 0.00 0.00 53 1015.9
20260830073029 59 169 0.0 2.0 0.00 0.00 0.00 53 1016.0
20260830072700 59 169 0.0 4.0 0.00 0.00 0.00 53 1015.9
20260830072602 59 169 0.0 4.0 0.00 0.00 0.00 53 1015.9
20260830072503 59 169 0.0 4.0 0.00 0.00 0.00 53 1015.9
20260830072400 59 169 0.0 4.0 0.00 0.00 0.00 53 1015.9
20260830072306 59 169 0.0 4.0 0.00 0.00 0.00 53 1015.9
20260830072202 59 169 1.0 4.0 0.00 0.00 0.00 53 1015.8
20260830072102 59 169 1.0 4.0 0.00 0.00 0.00 53 1015.8
20260830072002 59 162 1.0 4.0 0.00 0.00 0.00 52 1015.8
20260830071937 59 190 1.0 4.0 0.00 0.00 0.00 52 1015.8
20260830071916 59 228 1.0 4.0 0.00 0.00 0.00 52 1015.8
20260830071855 59 220 1.0 4.0 0.00 0.00 0.00 52 1015.9
20260830071834 59 205 1.0 4.0 0.00 0.00 0.00 52 1015.9
20260830071532 59 201 1.0 4.0 0.00 0.00 0.00 52 1015.9
20260830071159 59 203 0.0 4.0 0.00 0.00 0.00 52 1015.9
20260830071057 60 207 0.0 2.0 0.00 0.00 0.00 52 1015.9
20260830070957 60 227 0.0 2.0 0.00 0.00 0.00 52 1015.9
20260830070905 60 227 0.0 2.0 0.00 0.00 0.00 52 1015.9
20260830070846 60 227 0.0 2.0 0.00 0.00 0.00 51 1015.9
20260830070824 60 227 0.0 4.0 0.00 0.00 0.00 51 1015.8
20260830070802 60 227 0.0 4.0 0.00 0.00 0.00 51 1015.8
20260830070729 60 227 0.0 4.0 0.00 0.00 0.00 51 1015.8
20260830070708 60 227 0.0 4.0 0.00 0.00 0.00 51 1015.8
20260830070647 60 228 0.0 4.0 0.00 0.00 0.00 51 1015.8
20260830070358 60 172 0.0 4.0 0.00 0.00 0.00 51 1015.8
20260830065820 60 239 1.0 4.0 0.00 0.00 0.00 51 1015.9
20260830065800 60 171 0.0 2.0 0.00 0.00 0.00 52 1015.8
20260830065430 60 208 0.0 3.0 0.00 0.00 0.00 52 1015.9
20260830065331 60 208 0.0 3.0 0.00 0.00 0.00 52 1015.8
20260830065236 60 208 0.0 3.0 0.00 0.00 0.00 52 1015.8
20260830065214 60 208 0.0 3.0 0.00 0.00 0.00 53 1015.8
20260830065154 60 208 0.0 3.0 0.00 0.00 0.00 52 1015.8
20260830065122 60 208 0.0 3.0 0.00 0.00 0.00 53 1015.8
20260830065104 60 208 1.0 3.0 0.00 0.00 0.00 53 1015.7
20260830065042 60 209 1.0 3.0 0.00 0.00 0.00 52 1015.7
20260830065021 60 180 0.0 3.0 0.00 0.00 0.00 52 1015.7
20260830065000 60 209 0.0 2.0 0.00 0.00 0.00 53 1015.7
20260830064659 60 196 0.0 2.0 0.00 0.00 0.00 53 1015.7
20260830064637 60 197 0.0 2.0 0.00 0.00 0.00 53 1015.7
20260830064347 60 189 0.0 2.0 0.00 0.00 0.00 53 1015.7
20260830064047 60 184 0.0 2.0 0.00 0.00 0.00 53 1015.7
20260830063800 60 201 0.0 0.0 0.00 0.00 0.00 53 1015.7
20260830063430 60 201 0.0 0.0 0.00 0.00 0.00 53 1015.7
20260830063331 60 201 0.0 0.0 0.00 0.00 0.00 53 1015.8
20260830063227 60 201 0.0 0.0 0.00 0.00 0.00 53 1015.7
20260830063120 61 201 0.0 0.0 0.00 0.00 0.00 53 1015.7
20260830063022 61 201 0.0 0.0 0.00 0.00 0.00 52 1015.7
20260830062947 61 201 0.0 0.0 0.00 0.00 0.00 53 1015.6
20260830062929 61 201 0.0 1.0 0.00 0.00 0.00 53 1015.6
20260830062604 61 201 0.0 1.0 0.00 0.00 0.00 52 1015.7
20260830062513 61 201 0.0 1.0 0.00 0.00 0.00 52 1015.6
20260830062403 61 201 0.0 2.0 0.00 0.00 0.00 52 1015.6
20260830062305 61 201 0.0 2.0 0.00 0.00 0.00 52 1015.7
20260830062202 61 201 0.0 2.0 0.00 0.00 0.00 52 1015.6
20260830062102 61 201 0.0 2.0 0.00 0.00 0.00 52 1015.6
20260830062030 62 201 0.0 2.0 0.00 0.00 0.00 51 1015.6
20260830061957 62 201 0.0 2.0 0.00 0.00 0.00 51 1015.6
20260830061936 62 201 0.0 2.0 0.00 0.00 0.00 51 1015.6
20260830061917 62 246 0.0 2.0 0.00 0.00 0.00 51 1015.5
20260830061858 62 246 0.0 2.0 0.00 0.00 0.00 51 1015.5
20260830061837 62 246 0.0 2.0 0.00 0.00 0.00 51 1015.5
20260830061534 62 254 0.0 4.0 0.00 0.00 0.00 50 1015.5
20260830061515 63 254 0.0 4.0 0.00 0.00 0.00 51 1015.5
20260830061455 63 254 0.0 4.0 0.00 0.00 0.00 50 1015.5
20260830061439 63 254 0.0 4.0 0.00 0.00 0.00 50 1015.6
20260830060559 64 228 2.0 4.0 0.00 0.00 0.00 49 1015.6
20260830060505 64 236 1.0 4.0 0.00 0.00 0.00 49 1015.6
20260830060357 64 268 2.0 4.0 0.00 0.00 0.00 49 1015.6
20260830060259 64 284 1.0 4.0 0.00 0.00 0.00 49 1015.7
20260830060158 64 211 0.0 4.0 0.00 0.00 0.00 48 1015.6
20260830060057 64 238 1.0 6.0 0.00 0.00 0.00 49 1015.6
20260830060004 64 238 2.0 6.0 0.00 0.00 0.00 48 1015.6
20260830055925 64 270 2.0 6.0 0.00 0.00 0.00 48 1015.6
20260830055904 64 273 2.0 6.0 0.00 0.00 0.00 48 1015.6
20260830055844 64 260 2.0 6.0 0.00 0.00 0.00 48 1015.6
20260830055536 64 265 2.0 6.0 0.00 0.00 0.00 48 1015.7
20260830055514 64 273 3.0 6.0 0.00 0.00 0.00 48 1015.6
20260830055144 65 249 3.0 6.0 0.00 0.00 0.00 47 1015.7
20260830055044 65 257 3.0 6.0 0.00 0.00 0.00 48 1015.7
20260830054944 65 263 3.0 6.0 0.00 0.00 0.00 47 1015.7
20260830054840 65 254 3.0 7.0 0.00 0.00 0.00 47 1015.7
20260830054740 65 261 2.0 7.0 0.00 0.00 0.00 47 1015.7
20260830054640 65 287 3.0 7.0 0.00 0.00 0.00 47 1015.7
20260830054537 65 234 4.0 7.0 0.00 0.00 0.00 47 1015.7
20260830054439 65 264 4.0 7.0 0.00 0.00 0.00 46 1015.7
20260830054338 65 262 3.0 7.0 0.00 0.00 0.00 46 1015.7
20260830054238 65 294 2.0 7.0 0.00 0.00 0.00 47 1015.7
20260830054136 65 254 3.0 7.0 0.00 0.00 0.00 47 1015.6
20260830054035 65 270 4.0 8.0 0.00 0.00 0.00 47 1015.6
20260830053935 65 295 3.0 8.0 0.00 0.00 0.00 47 1015.7
20260830053834 65 271 2.0 8.0 0.00 0.00 0.00 47 1015.7
20260830053733 65 269 2.0 8.0 0.00 0.00 0.00 47 1015.6
20260830053630 65 265 2.0 8.0 0.00 0.00 0.00 46 1015.6
20260830053529 66 278 3.0 8.0 0.00 0.00 0.00 46 1015.6
20260830053429 66 262 3.0 8.0 0.00 0.00 0.00 46 1015.7
20260830053329 66 265 4.0 8.0 0.00 0.00 0.00 46 1015.6
20260830053229 66 263 5.0 8.0 0.00 0.00 0.00 45 1015.6
20260830053156 66 287 4.0 8.0 0.00 0.00 0.00 45 1015.7
20260830053134 66 281 4.0 8.0 0.00 0.00 0.00 44 1015.6
20260830053059 67 259 3.0 8.0 0.00 0.00 0.00 44 1015.6
20260830052729 67 277 4.0 11.0 0.00 0.00 0.00 44 1015.6
20260830052655 67 246 4.0 11.0 0.00 0.00 0.00 44 1015.5
20260830052632 67 257 4.0 11.0 0.00 0.00 0.00 44 1015.5
20260830052559 67 288 4.0 11.0 0.00 0.00 0.00 44 1015.5
20260830052231 67 254 4.0 11.0 0.00 0.00 0.00 43 1015.6
20260830052128 67 294 4.0 11.0 0.00 0.00 0.00 43 1015.5
20260830052052 67 291 5.0 11.0 0.00 0.00 0.00 43 1015.5
20260830052016 67 326 5.0 11.0 0.00 0.00 0.00 43 1015.5
20260830051953 67 281 4.0 11.0 0.00 0.00 0.00 43 1015.6
20260830051932 67 290 5.0 10.0 0.00 0.00 0.00 43 1015.5
20260830051912 67 263 5.0 10.0 0.00 0.00 0.00 43 1015.5
20260830051606 67 318 4.0 12.0 0.00 0.00 0.00 43 1015.5
20260830051546 67 321 4.0 12.0 0.00 0.00 0.00 43 1015.5
20260830051252 67 293 4.0 12.0 0.00 0.00 0.00 43 1015.5
20260830050922 67 284 5.0 12.0 0.00 0.00 0.00 43 1015.5
20260830050822 66 261 6.0 12.0 0.00 0.00 0.00 44 1015.5
20260830050720 66 342 6.0 12.0 0.00 0.00 0.00 44 1015.5
20260830050620 66 286 6.0 10.0 0.00 0.00 0.00 44 1015.5
20260830050545 66 288 6.0 10.0 0.00 0.00 0.00 44 1015.5
20260830050509 66 294 4.0 10.0 0.00 0.00 0.00 45 1015.5
20260830050448 66 319 3.0 9.0 0.00 0.00 0.00 45 1015.6
20260830050116 66 316 3.0 9.0 0.00 0.00 0.00 45 1015.6
20260830050016 66 298 5.0 9.0 0.00 0.00 0.00 45 1015.5
20260830045915 66 327 4.0 9.0 0.00 0.00 0.00 45 1015.6
20260830045815 66 275 2.0 9.0 0.00 0.00 0.00 45 1015.6
20260830045737 66 286 2.0 9.0 0.00 0.00 0.00 45 1015.6
20260830045716 66 333 4.0 9.0 0.00 0.00 0.00 45 1015.6
20260830045655 66 338 4.0 9.0 0.00 0.00 0.00 45 1015.5
20260830045311 66 286 4.0 8.0 0.00 0.00 0.00 46 1015.6
20260830045211 65 282 3.0 8.0 0.00 0.00 0.00 46 1015.6
20260830045136 65 313 3.0 6.0 0.00 0.00 0.00 47 1015.6
20260830045113 65 284 3.0 6.0 0.00 0.00 0.00 47 1015.6
20260830045038 65 290 2.0 6.0 0.00 0.00 0.00 47 1015.7
20260830044707 65 352 2.0 6.0 0.00 0.00 0.00 47 1015.5
20260830044643 65 285 2.0 6.0 0.00 0.00 0.00 47 1015.6
20260830044621 65 306 1.0 6.0 0.00 0.00 0.00 47 1015.5
20260830044547 65 303 1.0 4.0 0.00 0.00 0.00 47 1015.6
20260830044524 66 295 1.0 6.0 0.00 0.00 0.00 47 1015.6
20260830044231 66 271 2.0 6.0 0.00 0.00 0.00 47 1015.6
20260830043914 66 288 1.0 6.0 0.00 0.00 0.00 47 1015.6
20260830043852 66 306 2.0 6.0 0.00 0.00 0.00 47 1015.6
20260830043833 66 284 2.0 6.0 0.00 0.00 0.00 47 1015.6
20260830043501 66 281 2.0 6.0 0.00 0.00 0.00 47 1015.6
20260830043401 66 266 1.0 6.0 0.00 0.00 0.00 46 1015.6
20260830043303 66 242 1.0 6.0 0.00 0.00 0.00 47 1015.5
20260830043202 66 286 1.0 6.0 0.00 0.00 0.00 47 1015.5
20260830043101 66 317 2.0 9.0 0.00 0.00 0.00 47 1015.5
20260830043029 66 247 2.0 9.0 0.00 0.00 0.00 46 1015.5
20260830042951 66 271 2.0 9.0 0.00 0.00 0.00 46 1015.5
20260830042933 66 270 2.0 9.0 0.00 0.00 0.00 46 1015.5
20260830042603 66 256 1.0 9.0 0.00 0.00 0.00 46 1015.5
20260830042502 66 294 2.0 9.0 0.00 0.00 0.00 46 1015.5
20260830042404 66 276 3.0 9.0 0.00 0.00 0.00 46 1015.5
20260830042306 66 267 4.0 9.0 0.00 0.00 0.00 46 1015.6
20260830042204 66 257 4.0 9.0 0.00 0.00 0.00 46 1015.6
20260830042101 66 240 3.0 6.0 0.00 0.00 0.00 46 1015.6
20260830042002 66 261 2.0 6.0 0.00 0.00 0.00 46 1015.6
20260830041902 66 252 2.0 6.0 0.00 0.00 0.00 46 1015.6
20260830041802 66 245 2.0 7.0 0.00 0.00 0.00 46 1015.5
20260830041740 66 250 2.0 8.0 0.00 0.00 0.00 46 1015.6
20260830041717 66 258 3.0 8.0 0.00 0.00 0.00 46 1015.5
20260830041657 66 250 3.0 8.0 0.00 0.00 0.00 46 1015.5
20260830041637 66 236 2.0 8.0 0.00 0.00 0.00 46 1015.5
20260830041601 67 269 2.0 8.0 0.00 0.00 0.00 46 1015.5
20260830041005 67 261 3.0 8.0 0.00 0.00 0.00 46 1015.5
20260830040913 67 253 2.0 8.0 0.00 0.00 0.00 46 1015.5
20260830040803 67 259 2.0 8.0 0.00 0.00 0.00 46 1015.5
20260830040702 67 309 3.0 7.0 0.00 0.00 0.00 46 1015.5
20260830040604 67 259 2.0 7.0 0.00 0.00 0.00 46 1015.4
20260830040501 67 323 3.0 7.0 0.00 0.00 0.00 46 1015.5
20260830040413 67 246 4.0 7.0 0.00 0.00 0.00 46 1015.5
20260830040303 67 287 2.0 7.0 0.00 0.00 0.00 45 1015.5
20260830040202 67 291 2.0 7.0 0.00 0.00 0.00 45 1015.4
20260830040101 67 298 2.0 6.0 0.00 0.00 0.00 46 1015.4
20260830040003 67 334 3.0 6.0 0.00 0.00 0.00 46 1015.4
20260830035911 67 299 3.0 6.0 0.00 0.00 0.00 45 1015.4
20260830035816 67 258 2.0 6.0 0.00 0.00 0.00 46 1015.4
20260830035752 67 335 2.0 6.0 0.00 0.00 0.00 46 1015.4
20260830035733 67 247 1.0 4.0 0.00 0.00 0.00 46 1015.4
20260830035430 67 294 0.0 4.0 0.00 0.00 0.00 45 1015.3
20260830035353 67 265 0.0 4.0 0.00 0.00 0.00 46 1015.3
20260830035331 67 261 1.0 4.0 0.00 0.00 0.00 46 1015.3
20260830035028 67 266 2.0 4.0 0.00 0.00 0.00 45 1015.2
20260830035005 67 275 3.0 4.0 0.00 0.00 0.00 45 1015.2
20260830034931 67 269 2.0 4.0 0.00 0.00 0.00 45 1015.3
20260830034604 67 269 1.0 3.0 0.00 0.00 0.00 45 1015.3
20260830034501 67 254 0.0 3.0 0.00 0.00 0.00 45 1015.2
20260830034404 67 266 0.0 3.0 0.00 0.00 0.00 45 1015.2
20260830034303 67 274 0.0 3.0 0.00 0.00 0.00 45 1015.1
20260830034203 67 279 0.0 3.0 0.00 0.00 0.00 45 1015.1
20260830034101 67 279 0.0 3.0 0.00 0.00 0.00 45 1015.1
20260830034002 67 275 1.0 3.0 0.00 0.00 0.00 44 1015.1
20260830033904 67 273 2.0 3.0 0.00 0.00 0.00 45 1015.1
20260830033804 67 253 1.0 3.0 0.00 0.00 0.00 44 1015.1
20260830033704 67 265 0.0 2.0 0.00 0.00 0.00 44 1015.1
20260830033604 67 281 0.0 3.0 0.00 0.00 0.00 44 1015.1
20260830033502 68 257 1.0 3.0 0.00 0.00 0.00 44 1015.1
20260830033403 68 257 1.0 4.0 0.00 0.00 0.00 44 1015.0
20260830033304 68 255 0.0 4.0 0.00 0.00 0.00 44 1015.1
20260830033203 68 37 0.0 4.0 0.00 0.00 0.00 44 1015.0
20260830033101 68 277 0.0 4.0 0.00 0.00 0.00 44 1015.0
20260830033022 68 277 1.0 4.0 0.00 0.00 0.00 44 1015.0
20260830033002 68 277 2.0 4.0 0.00 0.00 0.00 44 1015.0
20260830032927 68 277 2.0 4.0 0.00 0.00 0.00 43 1015.0
20260830032907 68 246 2.0 4.0 0.00 0.00 0.00 43 1015.0
20260830032846 68 259 2.0 4.0 0.00 0.00 0.00 43 1015.0
20260830032554 68 294 1.0 2.0 0.00 0.00 0.00 44 1014.9
20260830032520 68 167 1.0 2.0 0.00 0.00 0.00 43 1014.9
20260830032457 69 201 1.0 2.0 0.00 0.00 0.00 43 1014.9
20260830032434 69 338 0.0 3.0 0.00 0.00 0.00 43 1014.9
20260830032149 69 233 0.0 4.0 0.00 0.00 0.00 43 1014.8
20260830032113 69 259 0.0 6.0 0.00 0.00 0.00 42 1014.7
20260830032052 69 244 0.0 7.0 0.00 0.00 0.00 42 1014.8
20260830032034 69 244 0.0 7.0 0.00 0.00 0.00 42 1014.7
20260830031744 69 281 2.0 7.0 0.00 0.00 0.00 42 1014.7
20260830031442 69 250 2.0 7.0 0.00 0.00 0.00 42 1014.6
20260830031419 69 273 3.0 7.0 0.00 0.00 0.00 42 1014.6
20260830031359 69 269 4.0 7.0 0.00 0.00 0.00 42 1014.6
20260830031337 69 254 3.0 7.0 0.00 0.00 0.00 42 1014.6
20260830031033 69 298 4.0 7.0 0.00 0.00 0.00 42 1014.5
20260830031012 69 342 4.0 9.0 0.00 0.00 0.00 42 1014.5
20260830030724 69 0 2.0 9.0 0.00 0.00 0.00 42 1014.4
20260830030422 70 339 3.0 9.0 0.00 0.00 0.00 42 1014.5
20260830030358 70 286 3.0 9.0 0.00 0.00 0.00 42 1014.5
20260830025800 70 349 5.0 9.0 0.00 0.00 0.00 41 1014.4
20260830025701 70 318 3.0 9.0 0.00 0.00 0.00 41 1014.4
20260830025630 70 330 4.0 9.0 0.00 0.00 0.00 41 1014.4
20260830025609 70 300 4.0 10.0 0.00 0.00 0.00 41 1014.4
20260830025548 70 330 4.0 10.0 0.00 0.00 0.00 41 1014.4
20260830025201 70 351 2.0 10.0 0.00 0.00 0.00 41 1014.3
20260830025101 71 5 3.0 10.0 0.00 0.00 0.00 41 1014.3
20260830025002 71 19 4.0 10.0 0.00 0.00 0.00 41 1014.3
20260830024901 71 289 4.0 10.0 0.00 0.00 0.00 41 1014.3
20260830024801 71 295 4.0 10.0 0.00 0.00 0.00 40 1014.3
20260830024701 71 288 4.0 10.0 0.00 0.00 0.00 40 1014.3
20260830024602 71 284 3.0 10.0 0.00 0.00 0.00 40 1014.3
20260830024538 71 280 3.0 9.0 0.00 0.00 0.00 40 1014.3
20260830024517 71 315 2.0 9.0 0.00 0.00 0.00 40 1014.3
20260830024439 71 270 2.0 9.0 0.00 0.00 0.00 39 1014.3
20260830024145 71 319 4.0 9.0 0.00 0.00 0.00 39 1014.2
20260830024124 71 351 4.0 11.0 0.00 0.00 0.00 40 1014.2
20260830024100 71 321 3.0 11.0 0.00 0.00 0.00 39 1014.2
20260830024025 71 238 2.0 11.0 0.00 0.00 0.00 39 1014.2
20260830024003 71 302 3.0 11.0 0.00 0.00 0.00 39 1014.2
20260830023942 71 303 4.0 11.0 0.00 0.00 0.00 39 1014.2
20260830023920 72 322 4.0 11.0 0.00 0.00 0.00 39 1014.1
20260830023859 71 292 4.0 11.0 0.00 0.00 0.00 39 1014.1
20260830023820 72 352 7.0 11.0 0.00 0.00 0.00 40 1014.2
20260830023528 71 334 4.0 11.0 0.00 0.00 0.00 39 1014.2
20260830023508 71 325 4.0 8.0 0.00 0.00 0.00 41 1014.1
20260830023446 71 308 4.0 8.0 0.00 0.00 0.00 41 1014.1
20260830023410 71 9 3.0 8.0 0.00 0.00 0.00 42 1014.1
20260830023349 71 278 3.0 11.0 0.00 0.00 0.00 43 1014.1
20260830023328 71 264 3.0 11.0 0.00 0.00 0.00 43 1014.0
20260830023306 71 263 2.0 11.0 0.00 0.00 0.00 43 1014.0
20260830023241 71 217 1.0 11.0 0.00 0.00 0.00 44 1014.0
20260830022936 71 293 2.0 11.0 0.00 0.00 0.00 44 1013.9
20260830022417 71 28 6.0 14.0 0.00 0.00 0.00 44 1014.0
20260830022342 71 272 4.0 14.0 0.00 0.00 0.00 44 1014.0
20260830022318 72 239 4.0 14.0 0.00 0.00 0.00 44 1013.9
20260830021758 72 255 5.0 14.0 0.00 0.00 0.00 43 1013.9
20260830021723 72 284 6.0 14.0 0.00 0.00 0.00 43 1013.8
20260830021702 72 261 6.0 14.0 0.00 0.00 0.00 43 1013.9
20260830021409 72 268 4.0 12.0 0.00 0.00 0.00 43 1013.8
20260830021344 72 195 5.0 12.0 0.00 0.00 0.00 43 1013.8
20260830020812 72 264 4.0 10.0 0.00 0.00 0.00 43 1013.6
20260830020750 72 256 3.0 10.0 0.00 0.00 0.00 43 1013.7
20260830020729 73 221 2.0 10.0 0.00 0.00 0.00 43 1013.7
20260830020648 73 238 2.0 11.0 0.00 0.00 0.00 43 1013.6
20260830020356 73 204 4.0 13.0 0.00 0.00 0.00 43 1013.6
20260830015817 73 218 5.0 13.0 0.00 0.00 0.00 42 1013.6
20260830015753 73 213 3.0 13.0 0.00 0.00 0.00 42 1013.4
20260830015732 73 240 4.0 13.0 0.00 0.00 0.00 42 1013.5
20260830015439 73 217 6.0 13.0 0.00 0.00 0.00 41 1013.6
20260830015401 73 158 5.0 13.0 0.00 0.00 0.00 41 1013.6
20260830015029 73 182 4.0 10.0 0.00 0.00 0.00 41 1013.6
20260830014930 73 221 4.0 10.0 0.00 0.00 0.00 41 1013.6
20260830014829 73 229 4.0 10.0 0.00 0.00 0.00 41 1013.6
20260830014731 74 208 4.0 10.0 0.00 0.00 0.00 41 1013.6
20260830014646 74 215 3.0 10.0 0.00 0.00 0.00 41 1013.5
20260830014623 74 140 3.0 10.0 0.00 0.00 0.00 41 1013.6
20260830014559 74 205 4.0 10.0 0.00 0.00 0.00 41 1013.4
20260830014229 74 232 5.0 10.0 0.00 0.00 0.00 40 1013.4
20260830014132 74 261 6.0 10.0 0.00 0.00 0.00 41 1013.4
20260830014029 74 193 5.0 10.0 0.00 0.00 0.00 40 1013.4
20260830013930 74 225 5.0 12.0 0.00 0.00 0.00 40 1013.4
20260830013829 74 183 5.0 12.0 0.00 0.00 0.00 40 1013.3
20260830013730 74 240 4.0 12.0 0.00 0.00 0.00 40 1013.3
20260830013630 74 225 4.0 12.0 0.00 0.00 0.00 40 1013.5
20260830013532 74 252 4.0 12.0 0.00 0.00 0.00 40 1013.4
20260830013429 74 215 6.0 12.0 0.00 0.00 0.00 40 1013.4
20260830013328 74 203 6.0 12.0 0.00 0.00 0.00 40 1013.4
20260830013228 74 190 5.0 12.0 0.00 0.00 0.00 40 1013.4
20260830013129 74 219 6.0 12.0 0.00 0.00 0.00 40 1013.4
20260830013027 74 213 7.0 12.0 0.00 0.00 0.00 40 1013.4
20260830012926 74 170 6.0 12.0 0.00 0.00 0.00 39 1013.4
20260830012825 74 162 6.0 11.0 0.00 0.00 0.00 40 1013.4
20260830012739 75 172 6.0 11.0 0.00 0.00 0.00 39 1013.4
20260830012716 75 215 5.0 11.0 0.00 0.00 0.00 40 1013.5
20260830012654 75 162 5.0 11.0 0.00 0.00 0.00 40 1013.4
20260830012325 74 207 2.0 11.0 0.00 0.00 0.00 40 1013.4
20260830012224 74 184 2.0 11.0 0.00 0.00 0.00 40 1013.4
20260830012154 74 148 3.0 11.0 0.00 0.00 0.00 40 1013.4
20260830012132 74 290 4.0 11.0 0.00 0.00 0.00 40 1013.5
20260830012110 74 243 4.0 11.0 0.00 0.00 0.00 41 1013.4
20260830012049 74 260 3.0 11.0 0.00 0.00 0.00 41 1013.4
20260830011743 74 233 2.0 12.0 0.00 0.00 0.00 41 1013.4
20260830011722 73 246 4.0 12.0 0.00 0.00 0.00 41 1013.4
20260830011426 73 202 4.0 12.0 0.00 0.00 0.00 40 1013.4
20260830011347 73 184 5.0 12.0 0.00 0.00 0.00 41 1013.4
20260830011014 73 252 5.0 12.0 0.00 0.00 0.00 41 1013.4
20260830010914 73 225 5.0 13.0 0.00 0.00 0.00 41 1013.4
20260830010814 73 209 7.0 13.0 0.00 0.00 0.00 41 1013.3
20260830010713 73 182 7.0 13.0 0.00 0.00 0.00 41 1013.4
20260830010612 73 219 6.0 13.0 0.00 0.00 0.00 41 1013.4
20260830010512 73 222 5.0 13.0 0.00 0.00 0.00 41 1013.3
20260830010440 73 152 4.0 13.0 0.00 0.00 0.00 41 1013.4
20260830010416 73 257 4.0 13.0 0.00 0.00 0.00 41 1013.3
20260830010341 73 313 6.0 13.0 0.00 0.00 0.00 41 1013.3
20260830010009 73 179 5.0 13.0 0.00 0.00 0.00 41 1013.4
20260830005908 73 223 4.0 11.0 0.00 0.00 0.00 41 1013.4
20260830005808 73 224 5.0 11.0 0.00 0.00 0.00 41 1013.3
20260830005707 73 197 4.0 13.0 0.00 0.00 0.00 41 1013.3
20260830005606 73 187 4.0 13.0 0.00 0.00 0.00 41 1013.3
20260830005523 73 214 4.0 13.0 0.00 0.00 0.00 41 1013.4
20260830005501 73 238 5.0 13.0 0.00 0.00 0.00 41 1013.3
20260830005438 73 217 6.0 13.0 0.00 0.00 0.00 41 1013.3
20260830005400 73 132 5.0 16.0 0.00 0.00 0.00 41 1013.3
20260830005338 73 215 6.0 16.0 0.00 0.00 0.00 41 1013.4
20260830005316 73 243 8.0 16.0 0.00 0.00 0.00 41 1013.2
20260830005255 73 170 8.0 16.0 0.00 0.00 0.00 41 1013.3
20260830005233 73 265 6.0 16.0 0.00 0.00 0.00 41 1013.3
20260830005157 73 151 5.0 16.0 0.00 0.00 0.00 41 1013.3
20260830005136 73 246 6.0 16.0 0.00 0.00 0.00 40 1013.3
20260830004845 73 205 8.0 16.0 0.00 0.00 0.00 40 1013.4
20260830004821 74 186 8.0 16.0 0.00 0.00 0.00 40 1013.3
20260830004243 74 215 6.0 16.0 0.00 0.00 0.00 39 1013.4
20260830003954 74 194 8.0 16.0 0.00 0.00 0.00 40 1013.4
20260830003646 74 232 7.0 15.0 0.00 0.00 0.00 40 1013.3
20260830003625 74 217 8.0 15.0 0.00 0.00 0.00 40 1013.3
20260830003254 73 175 5.0 15.0 0.00 0.00 0.00 40 1013.3
20260830003154 73 234 5.0 15.0 0.00 0.00 0.00 40 1013.3
20260830003052 73 166 5.0 15.0 0.00 0.00 0.00 40 1013.3
20260830002951 73 233 6.0 15.0 0.00 0.00 0.00 40 1013.3
20260830002851 73 146 8.0 15.0 0.00 0.00 0.00 40 1013.3
20260830002819 74 189 7.0 15.0 0.00 0.00 0.00 40 1013.3
20260830002740 74 197 6.0 15.0 0.00 0.00 0.00 39 1013.3
20260830002719 74 281 7.0 15.0 0.00 0.00 0.00 40 1013.3
20260830002350 74 197 8.0 15.0 0.00 0.00 0.00 39 1013.2